GFSSGP_925_thetae_054.txt.gz
Theta_e
315 317 320 320 318 319 319 317 318 319 322 331 335 329 337 334 337 344 341 332 329 337 342 343 343 342 339 339 337 334 332 326 324 324 324 323 326 332 334 330 329 330 329 329 328 326 320 315 319
321 322 317 318 318 319 317 319 321 322 327 330 331 329 330 340 331 339 341 340 336 340 342 343 343 341 340 339 338 334 330 325 324 322 321 321 331 334 333 331 328 329 329 329 327 324 314 316 320
315 318 318 319 321 319 319 319 320 321 322 326 331 333 339 338 333 339 343 342 340 340 342 340 340 341 340 339 336 333 328 325 322 319 320 325 333 335 334 333 328 328 329 328 325 314 313 315 318
319 318 319 318 316 317 318 318 319 319 320 324 326 336 336 335 341 341 342 343 339 339 340 337 340 340 339 338 335 331 327 322 320 321 326 330 333 334 334 333 331 327 328 325 315 313 313 312 316
318 317 318 318 318 319 318 318 318 318 321 324 328 335 338 338 340 341 341 335 338 337 339 339 339 339 338 336 332 328 323 321 322 325 328 330 330 331 332 332 332 324 321 316 314 313 311 310 312
318 319 318 318 319 319 318 324 326 326 325 324 328 332 339 338 336 337 341 339 337 337 338 338 338 337 335 333 330 327 323 324 325 328 329 329 328 329 331 331 331 319 316 315 313 312 311 309 309
318 318 318 318 318 322 322 323 325 332 334 334 334 335 340 334 331 334 336 338 337 336 337 336 334 333 332 330 329 330 328 329 329 329 328 329 331 331 330 331 327 316 316 315 312 312 311 310 309
318 317 318 318 319 323 323 325 332 332 330 326 335 335 328 333 330 331 334 335 335 335 334 332 329 328 328 326 326 328 328 329 329 326 328 331 332 331 330 328 319 316 316 314 313 313 313 311 311
318 317 319 320 320 323 323 325 329 329 333 328 337 336 333 330 330 328 328 330 333 332 332 329 327 325 323 321 320 324 326 329 326 324 324 327 329 328 325 320 316 316 315 314 314 315 314 313 311
318 318 321 320 320 320 321 322 331 330 329 327 324 333 332 333 331 327 325 324 324 326 328 327 325 323 321 319 315 318 324 327 323 320 318 319 323 323 322 316 316 316 314 315 316 316 316 315 315
318 319 320 320 320 320 321 324 323 326 332 332 324 332 332 332 329 325 322 322 321 322 324 325 324 322 320 319 320 320 319 323 320 321 321 321 324 320 316 316 316 315 315 315 316 316 318 318 317
318 318 319 320 320 321 324 327 327 327 340 334 330 332 332 331 328 324 321 318 319 319 320 321 321 323 322 318 313 313 316 320 321 322 321 322 323 318 316 316 316 316 317 316 317 318 319 317 316
318 319 319 320 321 323 325 326 328 337 336 332 331 332 332 329 324 321 319 317 318 318 319 320 320 320 320 320 320 318 318 320 320 322 321 324 322 321 319 321 320 320 320 319 319 320 318 316 314
319 320 320 320 321 323 324 328 328 329 334 333 333 332 332 328 324 321 319 318 317 317 317 318 316 316 315 315 315 316 319 321 321 322 323 324 321 323 322 323 323 322 322 322 321 320 318 317 315
319 319 319 322 322 323 324 324 325 322 327 335 332 329 331 328 324 322 319 319 317 317 316 318 317 318 317 314 317 318 318 317 318 317 323 321 323 323 324 324 323 323 322 322 321 319 319 317 314
320 318 318 322 323 324 326 329 327 324 328 335 330 329 331 327 327 323 320 319 318 317 318 318 318 317 318 317 316 315 318 316 319 319 319 322 323 323 323 323 325 324 323 322 321 319 318 317 314
319 319 319 324 323 326 328 331 327 327 328 331 330 329 330 328 327 324 321 319 319 318 318 318 317 315 315 315 313 314 315 316 320 320 322 322 322 324 323 325 324 324 323 322 320 319 318 317 314
321 320 320 319 324 324 324 332 325 332 331 329 330 329 330 328 327 326 324 321 320 319 318 318 316 316 314 314 316 318 315 318 318 316 320 324 325 326 326 326 325 324 323 321 320 319 319 317 314
321 320 319 323 324 324 327 327 330 327 329 329 330 328 329 329 327 325 323 321 320 320 321 319 319 318 318 320 320 320 323 323 320 320 322 326 325 326 325 326 326 324 323 321 320 319 318 315 312
321 320 320 321 323 322 321 322 330 330 332 329 329 329 329 330 329 327 325 323 323 321 321 321 320 317 318 322 323 321 321 323 321 321 326 326 326 327 328 326 325 324 323 322 320 318 317 314 311
320 319 320 323 324 322 321 320 320 328 329 328 328 329 328 329 330 328 327 325 324 326 326 325 324 322 322 324 325 324 321 322 323 323 325 324 327 326 327 326 325 324 323 322 320 318 316 314 313
321 319 320 323 324 322 322 323 321 322 325 328 327 328 329 329 330 329 328 328 326 328 327 327 327 327 326 326 327 326 323 321 322 322 325 326 327 327 327 326 325 323 322 321 320 318 316 315 313
321 323 323 320 320 322 323 324 323 323 323 326 328 327 328 329 330 330 328 328 328 328 327 327 327 327 326 327 328 328 325 322 321 323 324 327 328 327 327 325 324 323 322 320 319 317 316 315 314
322 322 323 322 322 326 322 324 326 324 324 324 326 327 327 327 329 330 329 327 327 327 328 328 328 328 328 330 329 329 327 325 324 324 325 327 328 327 326 325 323 323 321 319 318 316 315 314 312
322 323 326 327 327 330 324 325 325 325 324 323 324 326 328 327 328 330 330 330 329 327 327 329 329 329 328 328 329 327 328 329 326 325 326 328 328 327 326 325 324 321 320 318 317 315 314 312 311
323 323 328 331 334 330 328 328 324 323 324 323 322 323 325 328 328 328 329 331 330 330 330 329 329 329 329 328 329 330 329 329 329 327 326 328 328 327 326 325 323 320 319 317 315 314 314 311 309
325 324 323 327 329 334 331 325 325 324 323 321 322 322 324 325 328 328 328 329 331 331 332 332 331 329 329 329 328 328 330 330 328 328 328 328 328 327 327 324 322 319 317 315 314 313 312 309 308
321 324 327 325 332 333 327 326 326 324 321 320 321 323 325 327 326 326 328 329 331 332 333 333 333 332 331 329 328 328 328 327 327 321 329 330 328 327 325 322 320 318 315 313 312 309 308 306 303
321 323 327 327 326 332 332 328 325 324 322 321 322 322 323 325 328 327 328 329 330 332 334 336 335 334 334 331 329 329 325 324 325 330 330 329 328 325 323 320 317 314 313 311 309 307 304 303 301
321 323 325 330 328 330 333 329 323 324 322 323 322 321 322 324 328 329 328 328 328 331 334 336 336 336 336 333 331 331 331 331 330 329 328 327 326 323 320 317 315 313 310 307 307 304 302 301 298

GFSSGP_925_thetae_057.txt.gz
Theta_e
315 316 317 319 315 311 313 314 314 319 329 333 331 328 335 333 338 346 340 334 329 329 329 334 340 339 339 335 333 329 327 325 323 322 326 331 332 330 327 328 328 328 328 326 325 326 325 321 322
315 321 321 314 312 312 314 315 315 319 331 330 329 327 336 337 331 340 341 333 331 328 330 331 340 339 339 336 333 329 326 324 323 321 326 332 332 327 327 327 326 327 327 325 323 319 320 321 320
314 315 313 312 313 316 314 315 317 319 321 328 329 339 333 334 333 337 341 333 333 337 341 341 341 340 339 337 334 330 326 325 321 321 329 333 331 325 325 326 326 327 326 324 319 317 319 320 320
319 314 312 313 313 314 315 314 315 316 316 321 331 337 332 330 336 340 342 338 340 340 341 341 341 339 338 337 334 328 326 323 320 324 332 333 332 327 325 325 325 326 324 318 312 314 318 318 316
319 311 312 314 314 316 316 320 319 324 327 333 331 336 330 329 338 338 340 340 339 342 341 340 338 333 330 336 334 329 325 320 321 328 333 334 333 330 325 323 321 317 314 313 311 310 315 316 315
312 311 313 315 315 317 322 318 323 330 327 332 332 335 333 332 334 336 337 338 339 340 339 338 336 334 336 336 333 328 326 324 325 329 333 333 333 332 329 321 318 315 313 311 310 309 311 314 315
313 311 312 312 315 320 323 323 330 328 332 326 327 336 329 332 330 333 335 335 337 338 337 337 337 337 335 333 329 326 328 330 329 329 331 332 332 331 331 319 316 315 313 311 311 309 308 312 314
313 310 311 313 315 322 321 323 329 330 332 325 333 330 331 332 330 333 336 337 337 337 337 336 335 333 331 328 327 326 328 330 328 329 329 330 331 331 330 318 316 314 312 313 313 311 310 313 313
313 311 312 314 318 321 321 326 328 327 328 331 335 331 329 330 329 333 335 333 335 334 333 333 331 328 325 323 322 322 328 329 328 330 330 330 330 329 330 317 316 314 313 314 314 313 311 312 313
312 310 313 316 317 317 323 327 331 329 326 329 334 333 331 331 328 328 331 330 329 331 330 329 328 326 324 321 318 324 325 327 327 329 328 328 327 326 321 316 315 314 315 316 315 314 314 314 313
312 312 315 316 319 319 320 325 324 325 331 329 329 333 331 327 325 324 323 324 324 328 328 326 325 323 322 321 321 318 319 324 323 325 325 324 322 322 317 316 315 314 315 316 316 316 318 317 313
314 315 315 315 318 320 324 325 329 326 328 332 331 330 330 327 324 322 320 321 321 322 324 324 323 321 318 319 318 319 318 321 321 322 323 322 320 317 316 316 315 315 315 316 317 318 317 316 315
316 316 316 316 317 320 327 331 330 325 326 325 331 331 328 324 322 321 318 320 320 321 321 322 321 319 319 319 320 319 323 321 322 321 322 320 318 316 316 316 316 315 317 318 317 319 318 316 312
317 317 315 316 316 320 325 326 326 328 323 325 331 329 325 322 320 319 319 318 319 320 320 322 321 319 320 319 318 318 321 321 320 319 322 320 316 317 316 318 317 318 319 319 319 319 318 316 314
319 317 316 315 319 321 322 324 326 326 326 329 332 329 325 322 321 319 318 318 319 318 318 319 319 317 316 316 316 318 318 316 319 320 318 323 322 322 320 322 322 321 321 321 321 319 318 317 314
317 317 316 315 320 322 322 327 326 322 326 330 331 329 326 323 321 318 318 318 317 317 317 318 318 315 315 316 316 316 315 315 315 318 321 322 321 323 324 325 324 323 323 322 321 319 318 316 314
316 316 316 316 320 324 324 329 326 325 324 327 328 328 326 325 321 319 318 317 317 317 317 318 317 315 316 315 315 317 319 319 319 317 317 320 321 323 323 323 323 324 324 323 321 319 319 317 315
319 319 315 316 320 325 327 327 324 324 330 331 327 328 326 326 323 320 318 317 317 318 317 317 318 316 315 318 318 317 317 317 314 315 317 320 320 322 323 322 324 324 323 322 321 320 319 318 316
318 321 318 317 323 322 327 328 324 323 328 329 327 327 326 327 324 320 319 318 317 318 318 318 317 317 317 316 315 315 315 315 317 317 317 321 319 320 323 324 324 325 323 323 321 320 319 318 315
322 320 318 318 323 322 320 329 325 325 328 327 327 327 326 326 325 322 320 320 318 318 318 317 316 314 314 313 315 316 316 316 316 316 317 317 320 324 325 325 325 325 324 323 321 320 319 318 316
321 320 317 318 322 321 320 319 329 327 326 327 325 325 327 326 325 323 320 320 319 319 319 315 316 315 314 314 316 317 318 319 318 321 320 322 324 325 324 324 325 325 325 323 322 320 320 318 315
320 319 319 319 321 322 318 320 320 329 327 331 329 326 327 327 325 323 321 320 319 319 320 318 319 318 316 319 321 320 321 320 322 322 320 319 325 325 326 324 325 325 325 323 323 321 320 318 315
321 322 322 322 320 318 319 320 319 326 329 330 329 326 326 327 326 325 322 322 321 320 320 320 320 318 317 318 321 322 324 320 320 321 322 321 323 324 326 325 326 326 325 323 322 321 320 318 315
321 322 322 322 320 321 321 320 320 321 321 326 325 325 325 327 326 325 325 323 323 324 323 323 322 321 318 319 321 324 326 323 321 320 322 322 326 325 326 326 326 326 325 324 322 321 320 318 316
320 321 323 324 323 322 324 325 322 321 322 322 324 324 324 326 327 326 325 325 324 324 326 325 325 325 325 324 325 326 326 327 324 321 321 323 325 326 327 326 325 325 324 323 322 320 318 317 315
320 320 324 327 329 326 327 327 324 322 321 320 319 321 322 324 327 327 326 326 326 326 326 326 326 326 326 326 326 326 326 327 327 324 324 324 324 325 326 326 326 325 324 323 321 319 317 316 314
324 322 321 323 329 327 328 328 323 321 320 320 317 318 319 321 325 328 326 325 325 327 326 327 327 326 327 327 328 328 328 327 328 327 325 325 326 326 326 327 326 324 323 322 320 318 316 314 310
320 322 324 322 328 330 327 326 324 323 322 318 319 318 318 320 320 323 328 327 326 326 326 326 327 327 327 327 327 327 328 328 327 328 328 324 324 326 327 326 325 323 322 320 318 316 314 311 309
320 320 322 325 326 327 326 324 322 322 321 319 317 317 320 322 321 320 321 326 328 328 327 326 326 327 328 327 327 327 328 329 329 329 329 327 326 328 324 324 324 321 319 317 315 313 310 308 307
320 320 320 327 328 326 324 325 321 320 319 320 317 317 317 321 321 322 323 324 325 329 329 329 329 328 328 328 328 328 327 328 327 324 327 324 329 327 325 321 320 319 317 315 313 310 307 306 305

GFSSGP_925_thetae_060.txt.gz
Theta_e
314 316 321 318 312 309 312 313 313 314 321 329 329 330 334 333 341 339 335 336 339 339 339 335 334 335 338 331 329 328 326 325 324 325 328 329 324 324 324 326 325 326 328 329 330 329 329 329 328
315 316 320 312 311 311 311 311 313 313 316 330 329 332 337 332 331 339 334 336 335 333 340 333 332 336 337 331 329 330 328 328 331 330 330 326 323 322 324 324 324 325 327 329 329 328 323 322 324
314 315 312 312 309 312 312 313 313 314 329 327 340 336 333 334 332 337 341 337 330 328 329 328 327 325 332 334 332 328 325 329 332 331 329 324 321 322 321 322 321 322 325 328 327 320 316 316 322
318 311 309 312 312 312 314 314 314 326 330 331 332 336 332 328 338 335 340 332 331 330 333 329 327 336 337 334 332 330 326 331 331 332 328 324 323 322 321 319 318 321 324 325 319 317 314 317 320
318 308 310 311 312 312 314 317 324 329 329 330 330 328 329 333 333 337 339 338 339 337 340 338 336 337 335 334 332 333 324 330 331 333 328 325 322 322 320 318 317 316 315 317 318 316 314 320 320
313 308 312 312 313 313 319 323 326 327 329 326 333 332 331 333 333 334 338 337 338 337 338 338 337 337 334 332 332 331 328 330 332 333 329 325 323 323 320 317 314 311 310 311 316 314 313 319 321
312 310 311 311 313 313 321 326 327 329 329 326 327 336 331 331 331 333 336 324 333 338 337 336 334 332 331 331 328 325 329 329 332 333 332 327 323 322 319 315 313 310 309 309 312 313 313 312 317
310 309 312 310 312 312 320 328 329 327 330 327 332 333 330 329 331 334 336 334 336 336 336 336 335 334 333 329 327 321 323 328 331 332 331 330 325 321 317 314 312 311 310 309 309 313 313 312 312
310 311 310 311 314 316 319 328 328 325 327 332 334 334 330 329 332 331 333 334 336 336 335 335 334 331 328 326 324 322 324 328 331 331 331 331 329 320 316 314 312 313 313 311 311 312 313 312 311
310 308 312 312 314 316 324 328 330 328 329 331 333 331 331 329 330 330 330 331 332 331 332 333 329 326 326 326 323 323 318 326 329 329 330 330 330 320 316 314 313 314 314 312 311 312 312 312 311
310 311 313 313 314 316 324 326 326 330 333 332 328 332 330 327 326 326 324 325 328 330 329 328 326 323 324 325 325 324 326 328 328 327 328 329 329 318 316 314 314 315 315 314 314 316 316 313 311
313 312 313 313 316 318 323 325 324 326 330 330 328 330 328 326 325 324 323 323 324 327 325 325 323 323 323 326 329 328 327 329 328 328 327 326 324 316 316 315 314 316 316 316 316 318 316 314 311
313 314 314 314 316 323 326 330 326 326 327 331 330 330 327 324 323 321 320 321 322 323 324 324 324 322 324 328 325 326 326 326 327 327 325 322 319 316 316 316 315 316 316 317 318 318 317 315 310
316 317 316 314 314 324 326 327 326 325 325 329 331 329 325 322 321 320 320 319 321 321 322 321 321 321 321 318 317 324 321 322 324 323 321 319 315 315 316 316 316 316 316 317 319 318 317 316 312
317 316 315 315 315 321 321 323 324 327 324 329 330 326 323 322 320 320 320 319 320 319 320 322 320 319 318 319 318 321 322 322 322 322 319 317 315 315 316 316 317 317 318 318 318 319 318 316 314
316 315 315 315 315 320 320 322 323 324 328 330 330 326 324 321 319 319 319 319 318 319 319 319 319 318 317 316 316 319 322 320 322 322 320 316 319 318 317 319 320 319 320 320 319 319 318 317 315
315 315 316 316 315 319 320 322 323 323 329 330 329 327 324 321 318 318 318 318 318 318 318 318 318 318 317 315 319 320 321 319 319 319 322 320 321 322 322 322 323 323 322 322 321 319 318 317 315
315 317 316 316 314 323 326 324 324 322 324 328 328 327 325 323 319 317 317 318 317 318 318 317 317 317 316 316 316 316 316 316 315 316 319 322 321 322 323 323 323 324 324 322 322 320 318 318 317
316 316 316 316 320 324 325 325 322 324 325 328 326 327 326 323 320 318 317 317 317 318 318 317 315 315 316 315 316 316 318 316 315 315 315 319 319 320 323 322 322 323 324 323 322 320 319 319 318
316 317 318 316 321 320 324 326 323 322 326 327 327 329 326 324 320 318 317 316 316 317 317 316 316 316 316 316 316 316 318 317 318 318 318 319 320 321 319 319 322 323 325 324 322 321 320 319 318
317 317 318 317 317 319 322 321 327 325 325 325 326 327 326 325 322 319 318 316 316 317 317 316 317 316 316 316 316 316 316 316 315 316 316 315 313 316 319 320 322 324 324 324 323 322 321 319 318
318 318 319 319 318 320 317 319 323 326 326 326 326 327 325 325 323 320 319 318 317 317 317 317 316 317 315 317 315 315 316 316 315 315 315 315 314 319 319 321 324 324 324 324 324 323 321 320 318
319 320 320 321 319 317 317 318 317 326 328 326 325 326 326 324 324 322 320 319 317 317 317 316 316 315 315 315 314 315 316 316 316 316 316 314 317 318 321 324 325 324 324 324 325 324 322 320 319
320 320 320 319 318 322 319 318 317 328 328 326 326 325 325 325 324 322 321 319 318 318 318 315 315 316 314 314 314 316 317 317 318 318 319 321 322 320 318 323 325 325 324 325 325 324 323 322 319
319 318 321 322 322 323 322 323 320 318 319 326 327 325 325 325 324 323 321 319 318 318 318 317 316 317 315 314 315 318 318 319 321 319 318 320 320 320 319 320 324 324 325 325 325 324 322 321 319
319 318 322 325 325 323 324 326 323 319 318 320 325 325 324 325 326 324 322 321 320 319 318 319 318 318 317 315 315 317 320 321 321 322 320 319 320 321 321 322 325 325 325 326 325 324 322 320 318
321 320 319 321 325 325 325 324 321 320 320 318 319 324 324 324 326 325 324 322 321 321 320 320 320 320 320 318 316 317 319 321 323 325 324 321 320 321 322 323 325 326 325 325 324 322 320 319 318
319 320 322 322 325 327 324 323 323 322 321 319 318 315 320 322 324 326 325 324 323 322 322 322 323 323 323 322 321 321 322 323 324 325 326 325 323 324 325 326 325 326 325 325 323 321 319 317 316
319 320 322 322 322 324 324 322 318 320 320 318 317 316 314 318 323 325 325 325 325 325 324 324 324 324 324 325 325 324 325 325 326 326 327 326 324 324 324 325 325 325 324 322 321 319 317 315 313
318 320 320 323 325 324 321 323 319 318 318 319 317 315 318 318 318 321 324 325 325 325 325 325 325 325 325 325 326 326 326 326 327 327 327 325 324 325 325 325 325 324 323 321 318 316 314 311 308

GFSSGP_925_thetae_063.txt.gz
Theta_e
313 317 320 314 310 309 313 312 311 313 314 327 328 330 333 332 338 333 334 339 340 342 340 331 329 328 327 329 336 334 333 332 335 334 332 329 329 329 327 327 329 330 331 331 331 331 331 330 329
314 318 317 308 309 310 310 310 313 312 315 328 333 333 332 333 331 337 333 334 341 341 339 333 329 329 329 329 330 335 335 333 334 333 331 330 329 327 325 326 330 330 330 330 329 329 329 329 327
314 314 311 310 307 312 312 311 313 319 330 328 338 332 332 333 333 336 339 338 339 340 339 335 331 329 328 326 329 335 333 329 333 331 331 330 329 325 324 328 330 330 330 328 325 325 324 324 324
318 310 306 311 312 311 312 313 311 322 326 329 332 333 331 328 337 333 335 336 337 334 339 334 333 328 326 330 331 330 331 332 332 331 330 330 328 323 323 327 329 329 328 324 319 320 323 324 321
316 307 309 310 311 312 311 312 325 327 329 327 329 329 328 332 334 335 336 334 334 331 332 332 333 330 330 332 332 330 331 329 331 330 330 329 325 322 322 326 328 327 324 318 316 319 320 319 314
310 306 311 312 312 312 311 322 324 327 327 326 332 332 331 331 331 334 338 335 332 332 332 333 331 326 330 335 328 326 326 331 330 330 330 329 325 321 322 322 322 321 316 313 318 320 320 319 318
310 309 312 311 312 312 315 324 326 328 327 329 328 335 331 329 329 331 336 337 337 335 335 334 331 335 334 329 326 324 323 329 329 329 329 326 321 319 316 314 315 316 314 313 315 321 320 319 319
308 309 313 310 311 311 317 327 327 326 330 326 332 332 329 329 330 330 332 330 330 327 330 335 333 333 331 329 325 322 320 327 329 328 327 325 321 316 312 310 309 311 312 312 312 313 318 320 318
307 309 310 311 312 313 321 325 327 324 326 333 333 333 329 328 329 330 331 334 334 332 330 334 332 331 330 326 323 320 321 327 329 325 323 323 319 314 311 310 309 308 311 312 312 312 313 317 317
308 308 311 310 311 312 323 327 328 328 328 331 332 330 330 328 329 329 329 331 332 334 333 332 330 328 327 325 323 319 319 325 325 327 323 321 317 313 311 312 311 310 312 312 312 312 311 312 312
309 310 310 312 310 314 324 325 324 329 328 329 329 330 329 326 326 326 325 324 326 329 330 329 329 327 326 324 322 319 319 320 321 323 326 320 317 314 312 313 313 311 311 312 312 313 311 310 310
312 310 311 311 313 318 324 324 327 326 326 329 326 328 326 326 324 324 323 323 325 327 326 326 327 328 326 324 321 323 327 327 327 325 327 321 317 314 313 314 315 313 314 315 317 314 312 311 309
311 314 314 314 312 318 324 326 323 323 327 328 328 328 326 324 322 321 321 321 323 325 325 325 325 325 325 328 327 328 329 329 330 328 328 325 316 315 314 315 316 315 315 317 318 316 314 311 309
315 316 315 314 316 325 327 327 325 324 325 329 329 326 323 322 322 320 320 321 323 324 324 323 323 324 324 323 323 329 329 329 329 328 328 325 316 315 314 315 316 316 317 318 318 318 316 312 309
316 315 313 313 314 323 321 324 325 324 325 330 329 326 323 321 321 321 320 320 321 322 323 322 323 324 324 325 327 327 323 322 328 327 327 323 316 316 315 315 316 316 317 317 318 318 317 315 311
315 314 314 314 314 316 318 318 320 323 325 329 328 325 323 321 319 320 320 320 320 321 321 321 321 323 324 323 320 316 322 326 326 325 324 319 316 316 316 317 317 317 316 316 318 318 317 315 314
313 312 314 315 314 315 319 319 321 322 324 329 328 327 323 321 318 318 319 319 319 320 320 320 320 321 320 317 321 322 322 323 323 322 320 317 316 316 315 316 317 317 318 318 318 319 318 317 315
314 315 315 315 314 320 322 320 322 323 327 329 327 327 323 321 319 317 318 319 318 319 319 319 319 319 318 318 320 320 321 322 322 320 317 316 317 316 316 319 321 321 319 319 320 320 319 318 317
314 315 314 313 314 322 322 320 321 321 324 324 326 326 324 322 319 317 318 318 318 319 319 319 318 317 317 316 317 320 320 320 319 322 320 321 322 322 322 323 323 324 323 323 323 321 320 317 316
314 315 315 314 315 319 319 322 321 322 324 323 325 327 326 323 319 317 316 317 317 318 318 317 317 317 316 317 318 318 318 316 316 317 318 317 321 321 322 323 323 322 323 323 323 322 320 318 317
314 315 315 315 315 316 321 321 323 322 321 325 325 326 325 324 321 318 316 315 316 318 317 316 316 316 316 316 316 316 317 316 316 315 315 316 317 319 320 319 322 322 322 322 323 322 319 319 318
315 315 316 317 316 318 317 320 315 321 324 324 325 325 325 325 322 319 317 315 315 316 316 316 316 315 315 315 316 316 315 316 316 315 315 315 317 318 316 318 320 321 321 323 323 323 322 320 319
316 316 317 318 317 316 316 315 314 323 326 325 323 325 326 325 323 320 317 316 315 316 316 316 316 316 315 315 315 315 315 316 316 316 316 317 317 317 316 314 317 318 318 322 324 324 323 322 319
317 318 318 317 317 320 318 316 316 324 323 324 323 324 325 324 323 321 319 317 316 316 316 316 316 315 316 315 315 315 315 315 315 315 315 315 315 315 315 314 315 320 321 323 324 324 324 323 321
317 318 320 320 320 322 318 318 319 315 320 321 322 322 324 324 324 322 320 318 317 316 316 316 316 316 315 315 315 315 315 315 315 315 315 315 315 315 315 313 317 319 319 323 324 324 323 322 322
317 317 320 324 323 321 320 324 321 317 316 316 318 322 323 324 323 323 321 319 318 316 316 316 315 316 316 315 315 314 314 315 315 316 315 315 316 315 315 316 320 320 318 319 324 324 323 323 322
318 318 318 319 321 324 323 322 318 318 318 317 316 321 321 323 323 323 322 320 319 317 317 316 315 315 316 315 315 315 315 316 316 316 318 318 316 316 317 319 319 320 321 321 323 324 323 318 321
317 318 321 319 323 325 321 323 320 319 319 319 317 318 321 322 323 323 322 321 320 318 317 317 317 315 315 316 314 314 314 315 317 318 319 320 320 321 322 321 321 320 322 323 324 324 322 321 320
317 318 320 320 319 323 323 321 316 318 318 318 316 314 319 319 322 323 323 322 321 320 318 317 318 317 316 316 316 314 314 315 316 319 320 322 324 325 323 323 324 324 324 324 323 322 322 320 318
316 318 320 323 324 322 320 322 317 317 316 316 314 313 312 315 320 321 323 323 323 321 320 320 319 319 319 319 319 318 316 317 319 320 322 323 323 325 325 323 324 324 324 322 322 321 319 318 314

GFSSGP_925_thetae_066.txt.gz
Theta_e
314 318 320 312 309 307 312 312 311 312 313 322 327 327 330 331 334 330 333 338 341 341 339 337 335 334 331 329 336 337 338 333 336 335 335 334 334 333 332 332 331 331 331 330 329 328 328 328 328
314 318 316 306 308 310 310 309 311 314 321 325 333 333 331 333 330 336 334 338 341 341 336 334 332 330 330 329 325 328 336 336 334 333 331 332 331 331 332 332 331 330 330 329 329 330 328 327 324
314 314 309 307 306 311 311 310 310 312 327 327 335 330 331 330 332 333 339 337 341 340 335 333 329 328 328 328 328 326 328 332 327 328 332 331 331 331 332 331 330 330 332 332 332 331 328 323 322
316 309 304 311 312 310 312 312 311 312 323 328 332 331 330 328 335 334 335 336 340 340 336 331 328 328 326 326 328 328 328 330 332 330 331 330 331 332 331 329 329 328 328 330 330 330 323 321 318
313 306 309 310 311 310 309 310 316 326 326 326 329 328 327 327 333 332 333 335 337 340 339 331 329 329 328 328 327 329 327 328 331 329 330 329 330 331 330 329 327 324 323 328 328 325 320 312 309
308 305 310 311 311 311 310 311 323 325 326 325 330 327 329 331 331 331 334 335 334 334 338 336 331 330 328 327 329 330 329 332 331 327 329 328 329 330 330 328 324 317 317 323 323 321 313 311 309
310 308 311 311 312 311 311 323 324 323 327 326 327 334 330 327 328 331 334 336 334 331 335 334 333 332 330 330 331 330 326 329 330 328 327 327 328 329 329 326 316 315 318 320 319 317 316 311 310
307 308 312 310 312 311 312 325 327 326 326 326 329 331 328 327 329 330 333 334 333 335 334 333 332 331 331 331 330 326 322 319 325 328 328 326 326 326 325 318 313 316 320 320 319 318 317 314 311
305 308 310 312 310 312 314 323 325 324 327 329 332 332 328 328 329 331 333 330 331 329 331 332 331 328 328 327 326 326 326 324 327 327 326 323 321 320 319 315 312 313 316 320 320 319 318 314 311
309 308 310 309 309 311 310 321 325 326 327 329 331 329 328 328 329 328 330 331 332 332 331 331 325 329 328 328 327 323 327 323 321 322 324 319 317 312 311 312 312 312 312 313 318 319 318 314 311
307 310 309 310 309 308 312 324 323 326 328 327 328 328 327 326 327 326 326 326 328 330 331 330 329 328 327 325 322 320 321 323 325 322 321 318 314 310 309 310 312 312 312 312 314 316 314 312 310
311 309 310 310 311 314 318 323 325 325 324 327 327 326 326 324 323 325 325 325 327 329 330 329 328 326 324 321 320 322 323 323 323 322 321 317 312 311 310 310 311 312 313 312 311 311 310 310 309
310 311 312 312 312 312 322 323 324 324 324 327 327 327 325 323 321 322 323 323 326 326 327 327 326 325 323 321 320 320 322 323 324 321 320 317 312 312 312 311 311 312 314 313 312 310 310 309 308
312 313 313 312 312 323 323 326 325 322 325 327 328 326 323 321 319 319 321 323 324 325 326 325 327 326 324 322 321 321 323 323 322 321 322 317 313 313 314 312 312 314 316 316 314 315 313 309 308
315 314 312 312 313 319 322 322 325 323 326 328 327 326 323 320 320 318 319 320 323 324 325 324 325 325 326 324 323 325 323 323 324 324 325 318 314 313 315 315 314 315 317 317 317 315 313 310 307
314 312 313 312 313 316 319 318 314 321 327 328 327 326 324 320 319 319 320 319 321 322 323 324 324 325 326 327 326 325 326 325 325 326 324 317 315 314 315 315 316 316 317 318 318 317 315 312 310
311 313 312 312 313 317 318 317 318 322 326 327 327 328 324 320 318 318 319 319 320 321 322 322 322 324 323 322 320 323 326 325 321 324 324 320 316 315 315 316 315 316 316 317 318 318 318 316 313
314 314 312 313 313 314 317 318 315 322 322 325 325 328 324 322 319 317 318 318 318 319 320 321 321 322 322 321 320 323 318 317 320 324 324 322 316 316 315 315 315 317 317 317 317 318 318 317 316
312 314 314 312 312 315 316 318 317 320 323 324 325 325 326 322 318 318 318 318 319 319 319 320 320 320 319 319 320 320 321 321 323 323 322 321 316 316 316 316 316 317 317 319 319 319 319 318 317
314 314 314 312 312 314 314 316 316 319 323 324 323 325 325 322 318 316 317 317 318 319 319 319 319 319 319 318 320 320 318 320 322 319 319 319 317 316 316 317 320 321 322 321 321 321 321 319 317
313 314 313 312 313 313 316 317 317 319 321 322 321 323 325 324 321 318 316 316 316 318 318 318 318 318 318 318 317 318 319 319 319 320 320 321 321 320 320 320 321 322 322 323 323 323 322 320 318
314 312 313 314 315 317 316 318 314 314 319 321 322 323 324 324 321 318 316 315 315 316 318 318 317 317 317 316 316 317 319 319 318 317 317 318 319 319 319 320 320 320 322 321 322 322 322 321 318
314 314 314 315 316 315 316 315 314 321 319 320 321 322 323 323 322 319 317 315 315 315 317 316 317 316 316 316 316 317 317 318 317 316 315 316 316 316 317 317 316 316 319 319 319 321 322 322 320
316 316 317 316 316 319 317 315 315 314 320 318 320 320 321 323 323 320 318 316 314 315 316 315 315 316 316 316 315 316 316 317 316 316 316 315 315 315 315 316 316 316 315 316 318 319 321 323 322
315 316 319 321 321 322 316 315 318 315 314 317 317 318 320 322 323 321 318 316 315 314 315 315 315 315 316 315 315 315 315 316 316 315 315 315 315 315 315 315 316 316 315 316 317 319 322 322 321
316 317 319 324 323 321 318 320 319 316 314 313 314 316 318 322 322 322 319 317 316 315 315 315 315 315 315 315 315 314 314 314 314 315 315 315 315 315 315 315 315 315 315 314 317 320 321 322 322
317 317 316 318 319 321 320 321 318 317 316 315 315 314 316 320 321 322 321 319 317 316 315 315 315 315 315 314 314 314 314 314 314 315 315 315 315 315 315 315 315 315 315 317 319 321 321 322 322
317 316 320 317 323 324 320 322 320 319 317 316 316 314 317 319 320 322 322 320 319 318 316 315 316 315 315 315 314 314 314 314 314 315 315 315 315 316 316 315 315 316 318 319 321 321 322 322 321
317 317 318 318 317 321 321 319 316 317 316 316 316 314 313 318 320 321 321 322 321 319 317 316 315 315 315 315 315 315 315 314 314 315 316 316 316 316 317 317 318 319 322 323 321 322 322 322 321
315 316 318 320 319 319 318 321 316 315 315 315 314 312 312 316 318 319 321 321 321 320 318 317 316 316 315 315 315 315 315 315 315 315 315 315 316 316 317 316 317 321 324 323 323 323 321 321 320

GFSSGP_925_thetae_069.txt.gz
Theta_e
313 317 318 312 316 315 317 317 313 315 320 319 330 329 329 332 333 333 334 337 340 340 340 339 336 336 337 342 341 338 335 334 332 327 331 333 335 335 335 334 334 333 333 333 333 331 330 329 329
314 318 314 312 317 317 317 313 315 315 320 326 331 335 334 332 333 338 336 337 340 340 340 337 336 336 339 340 340 338 337 334 330 333 334 335 335 334 333 332 331 330 329 330 329 329 329 328 326
313 313 316 315 314 317 317 314 315 314 315 328 332 332 333 331 332 335 337 336 341 340 338 336 335 330 337 338 337 339 339 338 333 334 335 334 334 333 332 331 330 329 328 328 328 327 327 327 325
314 313 311 317 316 315 316 316 314 315 324 329 333 334 332 330 334 335 336 335 337 338 335 335 333 331 331 337 336 336 337 335 334 333 333 332 332 331 331 329 329 329 329 329 329 327 323 322 322
311 312 316 316 315 314 313 313 313 321 326 328 330 331 329 328 333 332 332 335 336 337 334 332 332 331 328 331 334 336 335 332 330 330 328 331 331 330 329 330 331 331 332 330 327 323 318 318 317
315 312 317 316 314 314 313 313 318 325 325 326 329 329 329 331 331 330 332 334 334 335 335 331 330 329 329 328 328 327 330 331 331 331 329 330 329 329 329 329 328 329 329 328 321 314 310 310 312
316 315 315 314 315 315 314 321 325 325 325 326 329 334 332 328 329 330 332 335 332 334 333 332 331 330 329 329 329 328 327 332 331 329 330 328 328 329 328 326 324 328 328 324 316 309 309 310 312
313 315 315 315 316 315 313 323 327 327 326 326 330 332 332 329 329 330 331 333 335 332 333 332 331 330 330 329 329 328 328 331 329 329 329 329 329 329 327 321 320 326 324 320 313 310 310 310 312
309 316 317 315 314 316 313 319 325 324 327 329 333 333 329 328 330 331 332 330 330 328 329 331 332 331 330 330 331 330 328 325 325 327 328 329 330 328 324 319 318 322 320 316 314 312 311 310 311
314 316 316 313 313 314 314 313 320 326 327 328 332 330 328 329 330 330 332 331 331 331 332 330 327 328 330 329 328 325 322 323 321 325 327 328 328 326 316 316 320 320 319 318 316 313 311 314 316
311 316 313 313 313 312 313 319 325 327 327 327 329 330 328 328 329 329 328 329 330 331 331 329 327 326 327 326 325 324 322 317 319 323 326 326 325 320 314 315 321 321 320 321 319 315 316 315 316
313 313 313 312 312 314 314 321 325 326 326 326 327 328 327 328 327 327 328 327 327 329 330 329 327 327 327 326 326 327 323 324 324 322 323 321 320 316 313 313 315 319 323 323 319 316 311 310 308
312 313 312 312 313 314 318 320 322 325 325 327 327 328 328 327 324 324 325 325 326 327 330 328 327 328 327 326 325 325 322 321 320 325 321 316 312 313 313 312 312 313 316 317 317 314 312 309 309
313 312 314 315 315 316 319 322 325 325 324 330 330 330 328 325 323 322 323 325 324 326 327 327 325 326 326 324 323 323 323 322 324 324 318 312 309 309 312 312 312 312 313 312 312 311 311 310 308
314 316 315 315 314 316 323 323 327 325 327 329 331 330 327 324 321 322 322 322 325 324 326 326 325 324 323 321 321 322 323 324 323 324 319 311 310 309 312 312 313 314 311 311 311 310 309 308 307
315 314 316 313 315 318 321 321 320 318 326 329 330 330 328 324 323 321 320 321 322 323 324 325 325 325 323 321 320 322 323 323 324 322 322 313 312 311 310 311 313 316 314 314 313 311 310 308 307
313 316 314 314 313 322 320 320 318 324 326 327 329 330 329 326 322 320 320 320 320 321 322 324 325 324 324 323 322 321 323 323 324 322 320 320 313 313 312 311 314 317 317 316 316 316 314 310 308
313 316 315 315 316 316 319 318 318 319 325 328 328 330 329 327 325 320 320 318 319 320 321 323 323 324 324 324 323 324 322 323 322 321 321 322 315 314 314 314 314 316 318 317 317 318 315 314 311
314 314 315 314 313 314 315 317 319 318 324 326 326 328 330 327 325 320 319 319 318 319 320 321 322 323 324 323 322 324 323 324 323 320 322 322 317 314 315 315 315 316 316 317 318 318 317 317 315
314 315 316 315 314 315 316 317 318 319 322 324 325 327 329 328 324 320 320 319 319 318 319 319 321 321 322 321 319 319 320 321 321 319 322 321 317 315 314 315 315 315 315 317 318 317 318 318 317
315 316 316 315 314 314 316 319 319 319 321 322 325 325 327 328 325 321 320 319 318 318 317 319 319 320 320 320 319 319 319 318 319 318 320 320 319 317 316 315 315 316 317 317 318 319 319 320 318
316 314 315 315 315 314 317 322 319 320 318 320 322 325 326 328 326 323 320 318 318 318 317 319 319 319 319 319 319 319 319 317 318 319 320 319 319 317 316 316 317 318 320 320 319 319 322 322 320
315 315 315 315 315 316 316 320 319 317 320 320 321 322 324 325 327 325 321 319 317 317 317 319 319 319 318 318 318 318 319 319 319 318 317 316 317 317 317 317 317 319 318 320 320 320 321 321 321
315 316 316 317 318 321 319 320 321 320 321 321 320 321 322 324 326 325 322 319 317 317 316 318 317 317 318 317 317 318 319 320 318 317 317 317 319 319 319 317 317 318 317 318 318 319 320 320 321
315 317 319 323 323 322 319 320 322 319 318 319 320 320 320 323 325 325 323 320 318 317 315 317 317 317 317 317 316 316 317 318 319 317 316 316 316 316 316 317 317 317 317 316 315 316 316 319 320
317 317 321 321 325 323 317 322 321 319 318 317 316 318 318 321 325 325 324 321 319 316 316 317 316 316 316 317 317 316 316 317 317 318 317 316 316 316 315 315 315 316 316 316 316 315 315 316 319
318 319 318 320 320 323 321 321 321 320 321 319 319 318 320 319 323 325 324 322 320 318 317 316 315 315 316 317 317 316 315 316 316 316 316 316 316 315 315 315 315 315 315 315 315 315 317 318 320
319 317 321 320 322 322 321 322 322 320 320 320 319 319 319 319 321 324 325 322 321 319 318 317 316 316 316 317 316 316 315 315 315 316 316 316 316 316 315 315 315 315 315 315 315 316 318 320 320
318 319 319 319 321 322 322 322 320 322 321 320 321 319 319 318 321 324 324 323 322 320 319 318 317 317 317 316 316 315 315 314 314 314 314 315 315 315 316 316 316 316 316 316 316 317 320 321 321
316 318 319 322 321 322 322 322 318 319 319 319 320 319 318 316 318 321 323 323 323 321 320 319 318 317 317 316 316 315 315 315 314 314 314 315 315 316 316 315 315 316 317 317 316 319 322 321 320

GFSSGP_925_thetae_072.txt.gz
Theta_e
314 319 320 319 320 320 320 320 319 320 323 323 328 328 327 329 329 330 338 341 342 342 343 341 338 342 343 343 340 336 335 339 337 332 328 332 334 334 335 335 335 334 335 336 335 334 333 332 329
318 320 319 320 321 320 321 320 320 321 321 324 328 332 333 332 334 337 340 340 342 342 341 341 337 337 342 343 340 338 338 337 335 329 332 335 335 335 335 335 334 333 334 334 333 332 331 330 327
316 317 320 321 320 320 320 320 320 321 320 323 329 333 332 333 334 339 339 340 342 342 340 339 336 333 335 341 341 340 339 338 335 331 335 335 336 335 335 334 333 332 333 333 330 329 330 327 326
317 318 319 321 320 320 320 320 320 320 326 326 329 329 334 333 335 338 339 339 341 340 340 337 333 331 325 336 340 340 339 337 335 335 335 335 334 334 332 331 329 329 329 330 329 330 327 323 322
319 319 319 320 320 320 320 319 319 320 326 328 330 326 330 332 335 336 336 338 340 338 337 327 333 330 329 331 338 339 338 336 335 336 335 334 333 332 330 328 327 328 328 329 328 328 325 321 320
320 320 318 318 319 319 320 319 320 323 325 328 328 329 330 333 334 334 335 337 338 337 337 338 334 331 333 333 339 338 338 336 335 334 333 333 332 331 329 329 330 328 328 327 325 322 321 320 320
318 318 317 317 319 320 320 321 324 322 323 324 328 329 332 333 333 333 335 337 337 335 335 337 335 334 332 334 333 332 337 335 334 333 331 333 330 329 329 331 331 330 327 321 318 319 317 315 317
318 318 318 317 318 320 318 320 323 323 323 328 329 328 330 333 332 333 334 336 335 334 335 333 334 334 333 332 330 331 333 333 333 331 331 329 329 329 330 330 329 329 324 314 310 311 312 313 314
318 318 318 317 317 319 318 320 321 324 325 329 331 332 333 332 332 333 334 334 332 332 333 333 333 333 334 332 330 328 329 330 328 328 328 329 330 329 328 328 328 328 319 310 310 311 312 314 315
317 318 317 318 317 318 318 319 320 323 323 327 329 333 332 332 332 333 334 334 335 333 334 334 333 333 330 329 329 329 329 330 327 325 325 328 329 328 325 328 327 325 316 310 311 310 312 316 317
316 317 317 317 317 317 318 319 322 324 322 322 325 331 333 332 332 332 333 334 334 333 333 332 328 327 325 329 329 328 330 329 326 325 325 327 328 325 325 327 327 324 317 317 316 315 317 317 317
316 316 316 317 317 317 318 319 322 323 324 327 328 329 331 332 332 332 332 332 333 330 331 330 329 326 327 325 323 323 323 325 323 321 323 327 325 324 325 326 325 323 322 320 318 318 318 318 317
317 315 316 317 316 317 318 319 320 321 324 327 328 330 331 331 331 330 330 331 330 331 330 330 328 326 326 325 324 323 322 321 322 324 324 326 323 321 322 324 325 324 324 322 320 319 318 316 316
316 316 316 316 317 318 318 319 322 320 324 328 330 331 331 330 330 328 328 329 329 329 328 329 327 327 326 326 326 325 321 319 320 324 324 324 322 319 318 320 323 324 324 323 320 317 316 315 315
316 316 316 317 317 317 318 319 320 322 327 328 331 331 331 330 328 328 327 326 328 326 326 327 327 326 326 326 326 324 323 323 322 323 323 322 320 318 318 317 318 319 320 319 318 317 315 314 314
316 317 317 317 317 318 323 320 320 323 326 328 330 331 331 330 328 328 327 325 326 325 325 326 325 325 323 324 324 323 323 322 320 322 321 319 317 315 315 317 317 317 318 316 316 315 314 313 313
317 318 319 317 318 319 323 321 322 324 325 325 329 331 332 331 329 327 326 325 325 325 327 325 325 324 323 323 323 323 321 322 324 322 318 316 315 313 316 317 317 318 316 315 316 315 314 313 312
319 318 318 318 317 319 321 321 321 322 323 326 328 330 332 332 330 328 326 324 323 324 324 324 324 324 323 323 322 322 322 322 323 323 317 313 316 312 316 317 319 319 318 318 317 317 316 315 314
319 317 317 317 317 317 318 319 319 322 323 326 328 329 331 332 330 328 326 323 323 322 323 324 323 324 323 323 322 322 323 322 323 321 321 315 317 317 317 316 319 320 319 320 320 320 319 317 316
318 317 317 317 317 317 316 317 317 321 322 323 324 328 329 332 331 329 327 325 323 322 322 323 322 323 323 322 323 323 322 324 323 322 318 319 320 318 319 317 318 320 321 322 321 321 320 321 318
318 318 318 317 317 317 317 317 317 320 322 323 325 326 328 331 332 331 328 326 324 321 322 323 322 322 323 324 325 323 322 322 322 322 319 318 321 318 318 314 314 316 319 321 321 321 322 322 320
319 318 317 317 318 318 318 317 319 322 322 322 322 326 328 329 331 331 329 327 324 323 321 322 321 323 321 322 321 322 323 321 322 321 321 321 322 318 316 315 315 316 316 320 321 320 322 323 323
317 317 317 318 319 319 318 317 318 320 322 322 321 322 326 329 331 331 330 327 325 323 321 321 322 323 321 320 322 321 322 319 319 320 319 318 320 318 317 315 315 315 315 316 318 319 321 323 321
317 317 317 318 319 321 318 318 319 321 323 322 321 321 322 327 329 330 329 327 325 323 322 321 322 322 322 322 321 320 320 320 319 319 319 319 319 319 317 316 316 316 316 319 318 319 319 319 321
317 318 322 324 324 323 319 319 319 322 322 322 322 322 322 325 328 330 330 329 326 324 322 322 322 322 322 322 322 321 322 321 320 318 319 319 319 319 317 317 316 317 316 317 317 319 319 321 320
317 319 323 324 326 325 321 322 322 322 322 323 323 322 322 323 327 329 330 329 327 325 323 321 322 322 322 322 322 322 322 322 321 321 319 320 319 318 318 317 316 316 317 316 317 320 321 320 322
318 321 319 321 322 325 324 323 322 322 322 322 323 324 323 323 325 328 329 329 327 326 324 322 322 322 322 322 322 322 321 322 323 322 320 320 319 319 319 318 319 318 319 320 320 321 321 321 322
319 319 321 322 325 326 322 323 323 322 321 322 322 322 322 324 323 327 329 328 327 326 325 323 322 321 321 321 322 321 321 321 321 321 322 321 320 319 319 319 319 319 319 319 320 320 320 320 321
319 321 320 321 322 324 325 324 322 321 321 322 323 323 323 324 323 326 327 327 327 326 325 324 323 321 320 321 322 321 321 320 320 321 321 321 321 320 319 319 319 319 318 319 319 319 320 320 321
318 319 320 323 323 322 324 324 321 322 322 321 322 322 324 323 322 323 327 328 327 327 326 325 324 323 321 321 322 321 321 320 320 320 321 321 321 321 320 320 319 318 318 319 319 320 320 320 321

GFSSGP_925_thetae_078.txt.gz
Theta_e
313 313 319 322 322 322 323 323 323 321 321 323 324 324 324 324 325 333 343 343 343 347 348 339 336 340 345 343 340 340 340 339 337 333 333 334 334 333 333 334 335 337 337 338 337 337 336 335 332
316 319 322 323 324 323 324 324 323 322 322 322 322 323 323 326 332 331 342 343 343 343 345 344 336 338 342 344 339 339 339 339 339 334 334 333 333 332 335 336 336 336 336 337 337 335 335 332 330
315 321 322 324 325 324 324 322 322 322 322 321 321 323 326 329 334 335 342 341 344 344 345 344 339 338 341 340 334 336 337 339 339 335 335 333 332 333 336 336 336 336 336 337 336 334 331 329 328
319 320 320 321 321 322 323 323 322 321 321 323 324 324 330 331 331 336 338 339 341 343 344 343 340 335 337 337 335 328 327 331 336 336 335 333 333 335 335 334 335 335 335 335 333 331 328 328 327
317 320 322 323 322 322 323 322 321 321 321 322 324 325 326 335 335 337 337 339 340 342 343 342 339 337 334 335 335 331 327 329 334 335 335 334 334 335 334 334 333 334 334 332 331 328 327 327 326
319 320 321 321 322 322 323 322 321 321 321 322 323 324 329 336 335 339 339 339 340 341 342 343 340 335 332 329 330 326 325 325 329 334 335 335 336 334 334 332 333 332 331 330 327 326 326 325 321
320 320 321 322 322 321 322 323 322 321 322 322 324 325 327 336 336 336 337 339 340 340 340 341 338 334 331 330 329 328 326 325 330 333 336 335 335 334 332 332 331 330 328 326 325 325 325 319 322
319 320 321 320 320 321 322 322 322 322 322 323 322 321 326 338 335 335 337 339 337 338 336 340 341 339 334 330 329 328 329 325 325 332 335 335 334 333 331 330 329 328 327 325 320 319 320 318 322
319 320 320 320 321 322 322 321 321 321 321 321 321 323 329 335 334 334 337 337 337 336 337 337 339 338 336 335 332 332 328 324 332 332 332 333 332 330 329 329 327 326 325 323 320 318 317 319 320
319 320 319 319 321 321 320 320 320 320 321 321 322 325 334 334 333 333 336 336 337 337 336 335 336 337 335 335 333 332 330 331 327 332 331 332 329 327 328 328 326 322 321 317 318 316 316 314 319
318 320 319 319 320 320 319 319 320 320 321 322 322 325 335 335 333 332 331 336 335 336 337 337 335 335 334 333 332 330 331 331 328 332 330 330 328 326 328 328 324 321 314 315 313 313 314 314 319
318 318 319 319 320 319 318 319 319 319 322 322 323 324 326 327 332 332 331 334 335 336 335 335 335 334 334 333 332 331 328 331 331 329 329 326 325 327 328 326 318 315 311 313 311 314 318 315 318
318 318 318 318 319 319 318 318 318 320 320 320 320 323 327 327 330 330 330 332 336 336 334 334 333 331 329 326 325 329 330 331 329 327 326 324 324 326 326 325 316 315 313 313 312 319 319 317 317
318 318 318 319 319 319 318 318 318 319 319 319 320 325 327 328 330 330 330 330 335 334 334 333 333 330 328 325 326 328 327 328 326 325 324 323 323 326 321 325 317 321 317 313 319 321 320 320 320
319 319 319 319 319 319 319 318 318 320 320 319 320 323 327 329 330 330 328 328 333 332 333 332 333 330 329 326 325 325 326 326 325 322 324 323 325 323 325 325 320 322 319 317 320 320 320 319 319
319 319 320 319 319 320 319 319 319 321 321 320 321 323 329 329 330 329 327 329 331 331 331 331 330 331 328 327 324 324 325 325 324 324 324 325 324 323 325 324 323 324 321 320 321 320 318 319 319
320 321 321 320 320 321 321 320 320 321 322 323 324 326 329 330 331 329 328 329 328 330 329 330 328 327 328 327 325 324 324 324 323 323 323 322 322 323 323 324 325 325 322 322 320 319 318 318 318
320 321 321 322 322 322 320 320 320 322 324 325 324 327 329 331 331 330 329 329 327 330 329 328 326 326 327 326 325 324 322 322 322 321 317 317 322 317 318 323 324 325 324 322 319 319 318 317 317
320 321 322 324 323 323 323 321 321 322 323 325 326 326 328 331 331 331 329 328 327 329 329 328 326 325 325 325 324 323 322 323 323 322 322 321 321 321 322 321 321 321 321 319 318 317 316 316 316
317 318 321 324 323 321 321 320 320 321 321 322 323 325 326 329 331 332 331 329 327 328 329 327 327 325 324 324 324 324 323 323 323 322 320 320 321 321 320 320 319 320 320 318 318 320 319 318 317
319 321 323 323 323 323 322 321 321 321 321 321 321 321 324 328 330 332 333 331 328 328 327 327 326 326 324 325 325 324 323 322 322 322 320 321 321 322 320 320 320 319 318 319 319 320 320 320 318
323 321 323 323 324 326 323 323 322 322 322 322 321 322 323 324 329 332 333 332 330 328 327 327 325 326 324 324 325 324 323 323 322 321 321 320 319 320 320 320 322 320 320 321 320 321 322 322 320
324 322 323 324 323 324 323 323 323 322 321 322 322 323 324 325 327 331 333 332 331 329 328 326 326 324 325 324 325 325 324 323 322 323 322 321 318 319 318 318 320 320 322 321 322 323 323 323 322
319 322 322 323 323 326 323 324 325 324 324 323 323 324 324 325 326 329 332 332 331 329 327 326 325 326 324 325 324 324 324 323 323 322 322 322 320 316 319 321 320 321 322 323 323 323 323 322 321
319 319 326 327 327 327 322 323 325 324 324 324 324 324 324 325 326 329 332 332 332 330 327 327 326 325 326 325 325 324 324 324 323 322 322 321 320 319 317 320 320 319 319 321 322 322 322 321 319
319 319 327 330 331 327 323 324 325 324 324 323 323 323 324 326 329 329 331 333 332 331 328 326 326 325 326 325 326 325 324 324 324 323 322 321 319 319 319 319 319 319 318 316 318 317 318 319 318
320 322 320 326 324 332 331 325 324 323 323 322 323 324 324 325 326 327 329 332 332 332 329 327 326 326 326 325 324 325 326 326 323 323 323 323 321 319 318 317 319 319 319 316 314 316 317 319 318
319 319 322 322 327 333 330 331 326 325 324 323 323 325 325 325 326 327 328 332 332 332 331 328 325 326 327 325 324 324 324 325 325 324 323 323 322 320 319 317 318 319 318 318 315 317 318 318 319
318 320 321 323 324 330 332 330 327 327 324 326 326 325 325 326 326 326 328 331 332 332 331 330 327 326 326 327 326 325 325 325 324 324 325 323 324 322 321 320 319 319 318 318 316 317 318 319 319
318 319 319 325 330 327 329 331 326 326 324 324 324 323 323 324 324 326 327 329 331 332 332 331 330 327 326 327 327 327 327 326 325 326 325 325 324 323 322 322 321 320 319 318 318 318 318 319 320

GFSSGP_925_thetae_081.txt.gz
Theta_e
312 312 312 318 318 314 316 318 317 319 321 320 321 322 322 322 333 341 342 342 347 348 344 338 341 344 340 340 340 339 340 336 334 331 330 332 331 330 328 329 330 333 335 338 337 337 338 334 332
313 314 316 317 318 319 320 318 319 319 320 320 321 322 321 329 334 343 342 342 343 346 345 341 337 344 344 340 340 339 337 337 335 332 332 332 330 328 330 332 336 336 336 336 336 335 337 331 331
313 316 316 317 317 320 318 319 318 319 319 320 320 320 324 335 335 341 341 342 341 345 345 344 336 340 344 343 341 340 338 338 338 335 332 332 330 330 332 335 336 336 336 337 336 335 332 330 329
315 316 313 315 316 317 319 318 319 319 319 320 321 322 333 331 334 341 339 341 342 342 344 344 339 337 339 339 339 339 336 336 333 336 334 332 331 335 335 335 335 336 337 336 335 331 329 327 329
315 312 314 316 317 318 319 319 318 318 319 321 322 323 332 335 337 337 338 339 340 342 342 343 341 337 339 336 333 332 334 330 325 327 335 335 334 336 335 335 335 336 335 333 331 328 326 328 328
312 311 315 315 317 318 318 318 319 320 320 320 321 322 334 335 336 337 337 339 339 342 343 342 340 337 335 336 334 331 327 328 327 326 329 334 335 335 334 334 334 335 333 331 328 327 326 327 328
314 314 315 315 317 318 318 318 320 320 321 321 321 321 334 335 338 337 339 339 339 340 341 341 340 337 334 332 330 328 325 325 326 325 326 333 335 334 332 333 334 333 331 329 327 326 326 325 324
314 313 315 315 317 317 318 321 320 320 321 321 320 320 338 334 335 336 338 338 337 336 336 340 339 337 334 332 330 327 327 325 325 327 329 335 334 334 333 333 333 331 328 327 326 326 323 323 324
314 313 315 315 316 317 317 320 320 319 320 320 319 320 331 335 335 336 338 335 335 335 334 336 340 339 335 332 329 327 328 325 326 326 327 333 334 333 333 332 330 327 324 325 325 324 318 323 321
314 312 315 316 317 316 317 316 320 320 320 320 319 334 335 333 333 334 336 335 336 336 335 334 337 337 336 335 331 329 329 326 326 326 331 332 333 333 332 330 328 326 321 320 320 318 321 321 320
314 315 315 316 317 317 316 315 316 318 317 318 322 334 333 332 331 330 333 335 335 336 336 335 335 335 334 334 333 332 327 325 324 326 331 331 332 331 329 328 327 325 322 316 318 317 320 319 320
315 314 315 316 316 316 315 315 315 316 318 319 320 326 332 332 330 329 330 335 335 335 336 336 336 335 334 333 331 331 329 326 326 329 331 331 330 329 328 326 324 321 319 316 315 314 314 320 320
316 315 315 315 315 315 315 315 315 317 316 315 317 321 322 322 326 329 330 334 335 335 335 334 334 333 333 332 332 330 329 329 326 330 330 329 327 326 326 325 319 317 314 312 311 311 315 319 320
317 316 316 314 314 315 316 315 315 315 316 315 314 315 321 323 324 326 332 334 336 335 334 334 332 331 329 327 326 329 330 330 328 330 330 327 325 327 326 322 316 314 311 310 315 314 316 318 319
317 316 316 315 315 315 315 315 315 316 315 315 314 314 321 322 324 325 328 334 335 334 333 334 331 329 328 324 325 325 328 328 328 328 328 326 326 327 325 318 314 311 309 316 320 319 317 317 320
317 316 316 316 316 316 315 317 316 315 315 314 314 313 321 323 325 327 328 332 333 333 332 332 331 329 328 324 325 325 327 326 326 326 325 325 326 327 326 316 318 313 309 318 320 320 320 319 319
317 317 317 318 317 317 315 317 317 316 316 318 315 316 322 324 325 326 328 331 332 332 331 330 331 329 327 324 324 324 325 325 325 325 324 323 325 324 325 318 321 317 314 318 321 320 319 319 319
317 317 315 317 318 319 317 317 316 316 318 319 318 317 323 324 326 326 328 329 331 330 329 329 327 329 328 325 323 324 324 324 324 324 323 323 323 323 324 320 322 320 318 317 320 319 318 319 319
317 317 318 318 318 320 321 317 316 315 317 317 317 318 322 325 325 327 328 327 330 329 328 327 325 326 326 326 324 323 323 323 323 324 324 324 323 324 324 323 322 324 321 321 319 318 318 318 319
312 313 315 316 318 318 319 321 317 315 316 316 319 319 320 326 325 326 327 326 329 329 328 327 324 324 325 325 324 322 322 323 323 323 323 322 322 323 323 324 322 323 323 322 319 319 318 317 317
315 315 316 317 317 319 321 322 319 317 317 317 316 319 319 326 327 328 326 325 328 328 328 327 324 323 323 325 324 323 322 323 323 321 320 319 321 317 316 319 318 322 323 319 318 318 317 316 316
315 315 319 322 327 329 324 327 323 317 318 318 318 315 314 321 328 329 328 325 326 327 328 326 326 324 323 324 324 323 323 323 323 322 319 319 320 317 320 320 321 321 321 319 318 317 317 317 317
316 318 321 323 327 327 327 327 323 319 319 318 318 317 315 315 327 329 329 326 326 326 327 326 325 325 324 325 324 324 323 323 322 322 320 321 321 321 321 320 320 319 319 318 318 319 319 319 318
320 322 321 322 326 332 327 325 322 320 320 320 319 317 316 316 326 329 329 328 326 326 326 326 325 324 324 324 324 324 323 323 322 322 321 319 319 320 321 320 320 319 319 320 318 319 320 320 319
319 323 329 330 330 329 323 324 322 321 321 321 321 318 318 318 324 329 330 329 327 326 325 326 325 323 325 324 324 324 323 323 322 322 321 320 319 319 320 319 319 321 320 321 321 320 320 322 321
319 321 328 330 330 329 322 323 320 320 320 320 319 319 318 319 323 330 330 329 328 326 325 325 324 324 323 324 325 324 324 323 323 322 322 321 320 320 318 318 320 321 319 321 321 321 321 322 322
317 319 319 324 326 330 330 325 321 320 321 319 319 319 320 321 323 330 329 328 329 326 326 326 324 324 324 323 323 323 324 323 323 322 322 322 320 320 319 318 318 321 321 320 321 321 322 322 319
314 317 324 323 329 331 327 331 330 322 321 320 320 319 319 320 321 322 329 328 329 327 326 326 325 324 325 324 324 324 323 323 323 323 322 322 321 320 319 319 317 318 320 320 319 319 320 321 320
318 318 321 324 324 334 335 334 328 328 323 323 321 319 320 319 319 321 323 329 329 328 326 325 325 324 324 325 324 324 325 325 325 324 323 323 322 321 319 319 319 318 318 319 318 317 316 317 317
317 319 320 327 329 326 330 330 328 328 325 320 319 319 319 317 317 317 319 328 329 329 327 326 325 325 325 325 324 324 323 324 324 324 323 323 323 322 322 320 318 317 318 318 317 317 317 316 317

GFSSGP_925_thetae_084.txt.gz
Theta_e
316 313 312 317 317 311 315 315 316 317 321 319 320 320 320 323 330 326 341 342 343 345 341 339 341 340 340 340 336 334 334 334 333 334 336 336 337 336 336 335 337 339 339 339 338 337 339 338 336
312 314 315 313 316 317 316 316 317 317 319 318 320 320 320 337 342 342 342 343 345 345 342 339 340 341 340 340 338 336 335 334 333 333 335 335 334 334 332 333 336 336 336 337 337 336 338 335 333
314 317 315 315 314 316 318 318 318 317 317 318 319 319 326 335 342 341 341 342 344 345 342 340 338 343 340 340 340 339 337 335 333 334 335 335 333 329 331 331 333 335 335 336 336 336 334 332 332
313 314 311 314 316 316 317 318 317 316 318 319 319 329 331 332 341 341 340 342 343 344 344 342 338 341 343 341 340 339 338 337 336 333 333 328 334 334 335 334 336 335 334 335 335 334 331 331 330
313 308 313 313 313 314 316 315 315 316 318 320 320 321 334 336 339 339 341 342 343 343 343 342 340 338 342 342 341 339 337 336 333 332 329 327 330 335 335 335 335 336 335 334 333 331 331 330 328
310 307 312 313 314 315 315 315 314 316 318 321 320 325 335 337 338 338 339 340 342 343 343 342 340 338 340 337 335 337 336 334 332 330 328 326 328 332 334 335 335 335 334 334 331 330 330 329 328
311 310 312 313 315 316 317 315 316 318 319 320 319 326 335 335 336 337 337 338 340 342 341 341 339 337 337 335 331 332 331 330 328 326 325 329 327 333 332 334 335 334 332 330 328 329 330 330 326
309 311 316 313 315 314 315 315 319 320 320 319 317 332 337 333 337 337 338 338 337 338 339 340 338 337 335 335 333 331 327 325 326 326 327 329 327 331 331 334 335 333 329 328 328 329 328 325 321
311 312 313 313 314 315 314 315 317 318 319 319 318 321 327 336 338 338 337 336 335 334 335 336 337 336 335 332 332 328 326 326 325 326 327 327 325 329 331 333 334 332 328 327 327 327 324 322 320
312 310 315 312 313 314 315 315 315 318 318 319 323 334 334 335 336 336 334 333 335 334 334 333 336 336 336 333 331 327 326 325 325 325 328 328 328 330 331 332 332 330 327 326 326 325 323 320 321
312 316 314 314 312 313 313 314 313 316 316 317 319 335 333 334 333 334 334 334 335 334 334 334 336 336 335 335 332 328 327 326 326 327 326 328 330 331 333 332 330 326 326 325 325 322 322 320 320
316 314 314 315 314 313 314 314 313 313 315 317 321 333 332 331 330 330 331 334 335 335 335 334 336 334 334 335 333 330 329 326 326 328 329 330 331 331 330 328 326 324 325 324 323 320 321 319 320
315 316 317 315 314 313 313 314 314 315 314 313 315 331 332 330 328 329 329 333 334 335 336 335 335 335 334 333 332 332 329 325 325 328 328 330 330 330 330 327 326 321 319 318 319 321 319 319 320
316 315 316 315 314 313 313 313 312 314 313 313 313 320 326 329 327 325 330 332 334 335 335 335 334 332 332 333 331 331 330 327 327 326 328 330 330 329 328 327 325 321 315 317 318 320 319 320 320
316 316 315 314 313 313 314 314 313 314 313 313 312 311 315 320 322 325 330 333 334 334 334 333 332 330 330 329 330 331 330 328 327 330 329 330 329 328 326 324 322 318 314 315 316 314 319 320 319
317 315 316 316 315 314 313 316 314 313 312 313 311 310 313 319 320 326 332 333 334 334 333 332 330 329 328 325 324 326 329 329 327 329 329 328 327 326 325 323 317 315 313 312 312 317 318 320 319
315 317 316 316 316 315 314 316 315 314 313 313 312 311 311 318 320 324 331 333 333 333 332 331 330 328 327 324 324 326 327 328 328 328 328 327 326 326 326 319 313 312 311 316 315 315 316 319 320
318 317 315 315 314 315 315 316 315 315 314 313 313 311 314 321 323 324 329 331 333 332 331 331 330 328 327 324 325 324 326 326 327 326 326 326 326 325 323 318 310 310 312 319 319 317 318 319 319
316 316 316 314 314 318 316 316 315 316 317 315 312 313 316 322 324 324 328 330 331 331 331 330 328 327 326 323 323 320 322 324 325 325 325 326 327 326 323 316 316 313 314 319 320 320 319 319 319
313 313 311 312 314 320 321 320 317 318 317 313 315 314 315 322 323 324 327 328 328 328 328 327 326 328 326 324 323 323 323 323 324 324 324 325 326 326 324 318 320 315 316 318 321 319 318 318 319
309 312 312 314 319 319 321 321 319 319 320 317 313 315 316 322 325 325 326 327 327 327 327 326 325 325 326 325 323 323 322 322 323 323 323 323 324 323 322 321 320 319 319 317 320 319 318 318 318
315 313 315 318 324 324 324 328 323 322 322 321 316 313 316 319 325 325 324 326 326 326 326 325 324 323 324 325 324 323 323 321 321 322 322 323 323 323 323 323 320 321 321 321 320 319 317 317 317
316 320 320 321 323 324 323 330 324 322 323 321 319 314 312 316 325 326 325 326 326 326 325 324 323 323 323 324 324 323 323 322 323 322 322 322 322 322 321 322 323 322 322 322 321 318 318 317 317
319 321 321 322 323 324 321 328 325 323 322 321 318 315 314 312 325 326 325 326 326 326 325 324 323 323 323 323 324 323 323 323 323 322 321 321 321 321 319 320 321 321 321 322 319 319 317 317 316
319 319 324 328 327 322 321 327 324 322 320 320 320 317 316 314 325 327 325 324 324 325 324 324 324 324 324 324 324 324 323 322 323 322 321 319 319 321 318 320 320 320 320 322 321 318 318 317 317
319 319 323 328 327 326 321 324 322 321 321 321 320 317 317 318 327 328 326 324 325 324 324 324 324 324 324 324 324 323 323 322 322 322 322 320 319 319 320 320 321 320 320 319 319 318 318 319 318
319 319 318 324 326 326 325 326 322 327 325 322 319 316 316 320 327 328 327 325 325 324 324 324 323 323 323 323 323 324 323 323 322 322 322 321 320 319 319 320 320 319 320 321 319 320 319 319 320
316 318 325 324 326 330 325 329 334 330 327 323 320 318 317 322 327 329 329 327 326 325 324 324 323 322 323 323 323 323 324 323 323 322 322 321 321 319 318 319 319 319 319 321 321 321 321 321 320
315 319 320 322 322 327 332 334 329 329 327 324 322 318 318 317 318 325 329 328 327 325 324 323 323 323 322 323 323 323 323 323 323 322 322 322 322 321 319 318 318 318 319 320 320 320 321 321 320
315 319 320 326 328 325 328 328 326 325 325 323 321 320 318 318 318 320 325 325 326 325 325 324 323 323 323 323 322 322 322 322 323 323 322 322 322 322 321 319 318 318 318 318 320 320 319 319 319

GFSSGP_925_thetae_087.txt.gz
Theta_e
317 314 312 316 316 311 315 314 312 316 320 318 319 318 318 321 324 318 337 339 341 341 341 340 340 340 335 336 337 337 335 336 339 342 342 341 339 338 337 336 338 338 340 341 339 338 339 339 336
315 313 315 310 315 315 313 314 316 315 316 318 319 321 326 335 342 340 341 342 341 342 341 340 340 342 339 337 336 340 337 334 336 338 340 339 338 336 335 335 338 338 339 339 338 337 338 336 335
313 316 314 314 312 315 315 316 317 316 316 316 318 319 324 334 341 340 341 341 343 343 341 340 340 341 340 339 338 339 339 335 336 336 337 336 335 335 334 336 338 338 337 336 337 336 336 335 334
313 313 310 314 316 314 315 316 316 315 316 316 317 329 330 334 340 341 340 340 343 343 341 340 341 340 340 340 340 339 339 338 338 337 335 334 334 334 335 336 336 336 334 334 334 335 334 333 333
312 308 313 313 312 312 314 314 314 315 315 316 318 326 334 336 339 340 339 338 340 343 342 340 339 341 340 340 339 339 337 337 334 331 331 330 329 329 330 331 332 334 335 335 334 334 333 332 332
308 306 311 312 312 313 314 313 314 314 315 318 320 333 334 337 339 340 340 340 341 342 342 340 339 340 342 341 340 339 337 335 331 329 328 329 327 325 326 329 331 333 333 335 333 333 331 331 330
308 308 310 311 312 313 315 314 314 315 317 318 318 335 334 335 337 340 341 341 342 342 342 340 339 340 341 341 341 339 338 334 332 331 330 329 325 326 326 329 331 333 333 332 333 331 329 327 328
308 310 314 311 314 314 315 314 315 317 317 317 326 336 336 333 337 338 339 340 341 341 341 339 338 338 337 336 335 338 334 333 332 330 330 327 327 326 325 328 330 332 333 332 332 330 327 325 326
308 311 313 312 313 313 313 313 314 314 316 317 318 330 328 334 336 337 337 338 339 340 340 339 337 335 336 335 331 331 331 329 327 327 325 327 328 327 326 329 330 332 331 331 330 329 327 323 325
311 310 312 311 313 313 313 314 314 314 313 316 322 333 334 336 336 335 333 334 335 335 336 338 337 334 334 334 333 331 329 327 326 326 326 329 327 330 327 325 329 330 330 329 330 328 322 322 325
312 314 313 312 313 312 312 312 313 313 313 314 317 333 334 335 335 334 333 333 334 334 334 334 337 335 335 333 332 330 327 326 325 325 328 331 328 328 328 329 331 330 328 329 329 323 320 322 323
314 311 315 314 314 313 312 312 312 311 314 314 314 329 333 334 334 333 333 333 333 333 333 333 336 334 334 334 331 328 327 326 325 326 325 328 328 327 329 330 330 329 328 327 326 322 320 321 322
314 315 315 314 313 312 312 313 312 313 313 311 312 331 332 333 332 332 333 333 333 333 334 333 335 335 334 335 334 329 327 326 326 327 326 326 327 327 330 330 330 327 327 326 325 320 320 321 321
314 315 316 315 315 314 314 314 311 312 311 310 310 328 330 330 329 327 328 331 333 334 334 333 335 334 334 333 332 332 329 329 325 327 326 326 329 330 330 328 328 326 326 325 323 320 319 320 320
315 316 315 313 313 312 312 311 311 311 311 311 310 316 328 329 327 326 327 330 333 334 334 334 334 334 333 330 330 332 331 328 325 326 327 330 330 330 328 328 326 324 325 324 320 319 318 320 320
317 315 316 315 313 313 311 316 313 312 311 311 310 308 309 322 326 327 327 330 332 334 334 334 334 332 331 330 331 330 330 328 327 327 327 329 329 329 327 327 325 322 324 323 320 318 318 320 320
315 317 316 316 314 315 312 314 314 312 313 311 310 309 309 309 317 323 327 331 332 333 333 333 332 329 328 327 326 329 329 329 327 329 328 327 329 328 326 326 324 320 317 318 319 317 318 319 320
318 316 314 316 314 313 313 314 314 313 313 312 310 310 309 308 316 320 329 331 332 332 331 331 330 328 326 324 323 325 325 326 327 327 328 328 328 328 325 324 322 319 316 317 318 316 317 319 320
316 316 315 313 313 317 317 317 316 314 313 314 313 310 311 310 315 321 330 331 331 330 330 330 328 327 326 324 323 323 325 326 326 326 327 328 327 327 325 324 318 316 314 314 314 317 317 318 320
313 314 313 310 311 317 317 317 316 315 316 314 315 315 314 314 320 324 328 330 330 330 328 329 327 327 326 323 322 322 323 324 325 326 326 327 326 325 323 323 314 315 312 314 316 316 316 318 319
308 308 309 311 317 317 319 317 315 315 315 316 317 314 312 315 321 325 328 329 329 328 327 327 327 326 325 324 324 324 322 322 324 325 325 326 326 325 323 322 315 314 311 317 318 317 317 318 318
311 312 314 317 319 318 321 320 317 317 319 319 318 317 313 313 322 324 327 327 328 328 327 327 326 325 324 324 323 323 322 323 323 323 324 324 326 326 324 321 316 314 312 318 319 319 319 318 318
315 318 319 320 321 322 321 323 315 319 320 320 318 317 314 310 322 324 327 327 327 327 325 325 326 325 327 325 323 323 323 322 322 323 323 324 324 326 325 323 318 317 312 317 318 320 318 318 318
318 318 317 321 321 321 316 321 317 315 316 319 320 319 314 310 320 324 324 326 325 325 324 324 324 324 325 325 324 323 323 322 321 321 322 322 323 323 323 322 320 318 320 315 317 319 319 318 318
317 315 312 316 323 319 317 320 318 317 318 320 320 319 316 311 317 323 323 325 325 324 323 323 323 322 322 323 324 323 323 323 321 320 320 321 321 322 322 322 321 322 319 317 320 320 319 317 317
318 314 313 321 325 326 319 322 320 322 321 319 319 318 317 315 313 323 324 325 325 324 323 323 322 321 321 322 322 324 323 322 322 322 321 321 320 321 322 320 320 322 322 321 321 321 320 320 318
319 318 316 319 318 323 323 322 319 325 325 323 321 317 316 315 312 323 324 324 325 324 324 323 322 321 321 321 322 323 323 323 323 322 322 322 322 320 320 320 319 320 320 320 321 321 319 320 319
315 316 319 323 324 325 324 324 331 329 327 324 320 319 318 317 320 324 324 324 325 324 324 324 323 322 322 321 323 323 323 323 322 322 322 322 321 320 320 320 319 319 320 320 320 320 321 320 319
316 318 318 319 323 328 325 329 328 327 324 324 322 319 319 319 323 326 324 323 324 323 323 323 323 323 322 323 323 323 323 323 322 322 322 322 322 321 319 318 319 318 320 320 320 320 320 320 319
312 316 318 321 323 326 325 326 326 321 320 321 322 320 320 322 323 325 325 324 323 323 323 323 322 322 322 322 322 322 323 322 322 322 322 322 322 321 321 320 319 319 319 319 319 320 320 320 320

GFSSGP_925_thetae_090.txt.gz
Theta_e
316 315 312 315 315 311 315 313 312 314 318 316 317 318 318 318 319 317 332 339 339 335 338 338 342 342 341 337 336 336 338 342 342 341 339 338 338 338 336 336 338 338 339 340 339 336 339 339 338
317 313 314 309 313 312 309 313 316 314 315 315 318 324 326 325 339 338 339 340 341 337 338 338 342 342 342 337 336 336 337 339 345 341 340 338 337 336 335 335 338 338 338 339 339 339 338 337 336
313 315 313 313 311 311 309 313 314 315 313 316 317 319 323 329 340 338 339 339 339 340 338 338 341 342 341 340 338 335 336 340 345 344 339 338 338 336 335 334 338 338 338 337 339 338 337 336 334
314 311 308 314 314 313 312 316 315 314 314 314 314 323 329 334 338 339 339 340 341 341 339 338 340 342 341 340 340 339 335 339 341 342 339 338 337 336 334 335 336 336 336 339 338 336 336 335 333
311 307 313 313 312 312 312 312 314 314 315 314 317 320 330 334 339 339 339 341 341 342 340 339 340 341 341 340 339 339 337 335 337 338 336 335 335 334 333 334 334 334 334 333 336 335 335 334 333
307 306 311 311 310 311 311 312 313 313 314 314 317 326 330 335 339 340 341 340 340 341 340 340 340 341 340 340 338 339 336 334 336 335 334 333 332 330 329 331 330 331 332 333 334 335 334 333 333
306 307 310 310 310 312 312 311 314 314 313 313 320 327 331 335 339 339 338 338 340 341 340 340 343 344 340 340 339 339 337 335 332 332 329 327 327 328 327 326 323 328 332 333 334 334 333 332 332
306 307 311 309 311 311 313 314 314 315 315 316 326 328 329 333 337 340 340 341 342 341 341 340 344 343 340 338 338 337 336 333 329 328 328 329 329 329 328 324 324 328 331 333 334 333 332 331 330
306 310 310 311 312 311 312 313 313 313 314 314 318 327 327 334 337 339 339 339 341 341 340 340 339 337 337 337 338 336 336 332 330 329 330 330 329 328 325 325 325 328 329 331 333 331 330 329 328
309 309 309 309 310 312 312 312 312 313 311 313 316 330 333 335 336 335 334 335 337 340 339 339 337 335 334 333 334 335 333 333 331 331 331 329 329 326 325 325 328 327 330 330 331 327 326 327 326
311 312 310 311 311 312 312 312 312 313 312 312 313 317 333 334 334 334 333 334 336 337 337 338 338 335 333 333 332 331 331 330 329 327 327 329 328 326 326 327 329 329 330 330 329 325 325 325 325
314 311 312 312 311 313 312 312 312 310 313 313 312 313 332 333 334 333 333 333 334 333 333 334 336 336 334 333 333 333 331 329 327 326 327 329 328 327 327 326 326 328 329 329 328 325 324 325 324
313 314 312 313 312 312 311 311 312 311 311 311 309 313 328 333 333 334 333 332 333 332 333 333 334 336 334 333 333 332 331 328 326 325 326 328 328 327 329 324 326 330 328 329 327 323 322 323 324
313 314 315 314 313 313 314 314 311 311 310 310 309 310 325 330 332 330 331 332 332 332 332 332 333 335 333 333 334 332 329 328 326 325 326 326 328 327 328 327 329 329 328 328 325 321 321 323 322
310 312 313 312 312 312 312 311 310 311 310 309 309 307 316 328 328 327 330 331 331 332 333 332 333 334 334 334 333 330 331 329 326 326 326 327 325 328 327 328 329 328 327 327 322 320 320 321 321
316 313 315 314 312 313 312 317 313 311 311 310 309 308 308 322 326 328 328 328 330 332 333 333 332 334 333 333 332 330 327 330 329 326 327 326 326 326 327 328 327 327 327 326 321 320 320 320 320
314 317 315 315 312 314 311 314 313 311 312 311 310 309 307 306 311 325 327 328 329 331 333 333 332 334 333 331 330 331 329 329 329 326 326 326 328 328 327 327 326 326 326 324 321 318 320 319 319
316 316 314 315 314 313 311 312 311 313 313 311 310 309 309 308 307 310 321 326 328 330 332 332 332 333 332 329 327 326 327 329 329 328 328 326 328 329 328 326 326 324 323 322 318 317 318 320 319
315 315 315 313 312 311 312 313 314 312 311 311 311 311 311 310 309 310 316 327 329 330 331 330 330 330 326 325 322 321 323 325 326 327 328 327 327 327 328 326 324 321 323 321 318 317 318 318 318
313 315 314 311 309 316 314 314 312 311 313 312 312 311 312 312 313 320 326 328 329 330 330 328 327 326 324 324 323 323 323 325 326 326 325 327 325 327 327 326 323 320 319 319 318 317 317 317 318
308 310 309 310 314 313 317 312 312 312 311 312 312 312 313 312 311 322 326 328 329 330 329 327 326 324 325 322 321 322 323 324 324 323 325 326 326 326 327 326 322 319 316 316 317 316 317 317 318
307 307 310 316 315 314 317 317 313 312 312 312 314 314 315 314 313 321 326 328 329 329 328 327 325 325 324 323 321 321 322 322 323 324 325 326 325 326 326 325 322 316 311 314 315 315 317 318 317
312 315 316 319 318 320 320 316 310 311 311 310 310 315 314 313 311 321 326 327 328 329 327 326 325 323 322 322 322 321 321 322 322 323 324 326 325 324 322 324 323 315 310 313 314 314 316 318 318
318 316 318 319 318 317 316 316 312 310 311 318 319 315 315 314 310 318 323 327 328 328 325 325 324 323 322 322 321 323 322 322 322 322 323 324 324 322 322 322 321 314 312 313 314 316 317 317 318
314 314 312 311 319 316 314 317 314 312 314 323 320 316 314 313 309 316 324 325 326 327 323 323 323 323 323 322 321 322 322 322 322 322 321 322 323 322 322 322 320 316 312 310 310 316 319 318 318
316 314 315 317 323 321 316 322 317 320 322 322 321 318 316 313 309 318 323 325 325 326 323 322 324 323 323 321 321 321 323 322 322 322 321 319 322 322 324 323 322 319 314 313 313 313 318 319 314
318 316 314 316 316 316 315 319 317 323 321 320 321 320 319 319 315 313 321 325 324 325 324 323 323 322 322 322 323 323 321 323 322 322 320 319 321 322 323 322 322 320 318 317 319 315 316 318 318
314 315 315 318 323 323 320 321 323 323 324 321 321 320 321 322 319 313 321 324 324 324 323 323 323 322 321 321 321 321 320 322 321 320 320 321 321 321 322 322 320 320 320 321 321 317 316 320 319
316 317 316 317 318 322 322 321 322 322 323 322 320 320 321 320 325 323 323 324 324 324 323 322 321 321 321 320 320 320 321 322 323 322 322 322 321 321 321 321 321 319 319 320 321 321 321 320 320
312 316 316 315 317 322 323 319 322 322 322 321 319 320 320 317 320 324 323 322 322 322 322 322 321 320 320 321 320 320 320 321 322 322 322 322 322 321 320 320 320 320 320 318 319 320 319 319 320

GFSSGP_925_thetae_093.txt.gz
Theta_e
312 316 311 316 320 319 319 318 315 316 318 316 318 320 321 320 326 324 331 339 334 332 336 337 337 342 341 337 336 337 338 342 343 341 339 338 338 339 339 336 339 340 340 340 340 339 340 339 338
316 312 314 316 319 317 315 316 318 318 318 317 318 322 324 324 334 336 338 340 333 332 335 337 339 341 340 338 337 337 339 346 344 341 339 339 339 339 337 337 339 339 339 339 340 340 341 339 337
313 313 319 320 319 315 314 315 319 318 317 317 319 321 323 328 339 338 337 339 338 336 336 337 340 341 341 338 337 337 338 342 343 340 339 338 337 336 335 335 337 337 338 338 340 340 339 337 336
314 315 313 318 317 318 313 317 316 318 317 315 317 320 328 332 339 339 338 339 339 336 336 337 341 340 340 339 337 337 335 339 341 340 339 338 336 335 334 334 334 334 337 338 338 339 338 336 334
311 314 316 317 316 316 315 315 316 317 316 317 318 320 329 334 335 338 338 338 335 336 337 338 341 340 340 339 338 335 336 336 339 341 339 337 337 335 334 333 334 334 335 338 338 337 337 334 333
313 313 316 313 313 313 314 315 315 315 316 317 317 320 328 334 339 339 338 338 336 337 339 339 340 340 339 340 339 338 334 334 335 340 339 337 337 335 333 333 333 332 331 332 337 335 336 333 333
313 315 314 313 312 313 313 314 315 317 316 316 319 321 330 337 339 339 340 339 339 340 339 341 345 339 340 340 339 338 337 334 336 337 337 336 334 333 332 331 327 329 330 330 335 335 335 334 333
311 314 313 313 312 313 314 314 314 316 317 317 326 326 327 333 338 340 340 340 340 340 339 340 341 338 340 339 339 337 337 335 334 336 334 333 333 330 328 326 327 326 329 331 335 333 333 333 332
308 313 313 312 312 312 313 315 315 314 315 315 317 324 330 334 337 339 338 340 340 340 340 340 338 338 338 339 339 338 337 336 335 333 332 329 327 327 328 329 328 327 327 329 334 332 332 332 331
313 313 312 311 312 312 313 314 314 314 314 315 315 328 333 336 338 339 338 338 337 338 339 342 341 339 337 338 337 337 338 335 332 330 327 327 328 329 329 330 327 325 327 327 330 331 332 331 329
313 314 312 312 312 312 313 314 313 315 315 316 316 315 331 335 337 338 338 337 337 337 338 341 341 336 336 336 336 337 334 334 331 328 328 331 331 330 329 330 326 327 327 327 330 330 330 328 327
314 313 313 313 312 313 313 314 314 315 316 316 315 314 319 330 335 338 337 337 336 335 338 337 339 336 334 333 333 333 334 333 332 330 330 331 329 330 329 329 328 327 327 328 330 329 328 327 325
315 314 313 313 313 313 313 314 314 315 314 315 313 313 314 320 328 333 336 336 335 335 335 335 337 337 334 333 332 332 333 332 332 331 330 328 327 332 329 328 329 329 326 327 327 327 326 325 324
314 315 314 314 315 314 315 316 315 314 315 315 313 315 314 317 325 330 334 335 334 334 333 332 334 334 335 333 335 332 332 332 331 330 328 327 328 329 328 328 329 327 326 327 326 325 325 324 323
311 312 312 314 315 315 315 316 316 316 316 315 316 314 313 313 322 330 332 334 334 333 332 332 332 333 335 334 334 331 331 330 329 328 326 326 328 327 329 328 327 326 326 326 326 323 323 323 322
316 314 315 314 312 314 315 318 316 315 312 314 314 314 313 314 318 324 329 331 333 333 332 332 331 332 334 334 334 332 332 328 329 327 326 325 326 327 328 328 326 326 326 326 323 322 322 322 322
315 317 318 318 315 315 315 316 316 313 314 316 316 316 315 314 314 313 322 328 330 332 332 332 331 332 332 334 333 330 332 328 327 328 326 326 327 326 327 327 327 327 326 324 320 320 321 321 321
315 318 317 317 317 314 316 315 314 315 316 317 316 316 316 315 315 316 314 319 326 330 332 332 330 333 331 332 331 328 330 328 328 329 328 326 327 326 326 326 326 327 325 320 319 320 320 321 321
314 316 317 315 314 315 317 317 316 315 316 315 316 316 316 316 317 315 314 314 323 329 331 332 329 330 331 331 327 325 327 328 329 329 328 327 326 325 324 323 326 325 322 320 319 319 320 320 320
313 314 314 315 314 314 315 316 314 314 314 315 316 316 316 316 316 316 317 320 325 328 331 330 328 328 329 327 325 324 324 324 326 327 328 327 326 327 326 325 325 322 320 319 318 319 320 319 319
311 312 313 313 313 314 317 314 314 314 314 314 314 315 315 316 317 317 322 326 327 328 330 329 327 327 327 325 323 323 323 322 323 326 325 326 326 327 327 326 326 322 322 320 318 318 319 319 319
309 309 310 310 313 313 318 316 314 313 313 313 313 317 317 316 316 317 321 328 328 329 330 329 326 325 325 325 322 324 323 323 325 324 325 325 326 325 327 326 326 324 320 319 318 318 318 319 319
308 309 310 317 317 319 318 319 313 311 311 319 323 322 320 319 317 317 319 325 328 329 330 328 326 324 323 323 322 322 323 323 324 324 323 325 324 324 325 326 325 322 318 319 318 317 317 318 320
316 318 319 319 319 318 315 315 313 314 314 320 323 322 321 320 319 317 318 324 328 329 329 327 326 325 322 322 321 322 321 321 324 323 324 324 324 324 324 324 324 320 317 315 316 317 317 317 319
315 316 319 316 319 314 315 318 316 318 323 322 322 322 321 322 323 321 316 326 328 329 328 327 326 324 323 321 321 321 321 323 324 323 323 323 322 322 321 323 322 321 320 314 311 313 316 316 318
315 316 317 315 319 320 317 314 318 323 321 321 321 320 320 322 322 324 319 323 328 329 327 326 326 324 322 322 321 320 320 323 324 323 322 322 323 322 321 321 321 321 320 314 311 312 315 315 316
317 317 314 317 317 318 315 314 317 321 322 322 321 319 319 321 321 324 324 323 327 328 327 326 324 324 322 321 321 320 320 323 323 322 321 321 322 322 321 321 321 321 316 313 312 314 316 313 317
315 316 318 318 321 321 318 320 322 324 323 322 321 320 320 319 319 324 324 321 326 327 325 324 323 323 322 322 321 320 321 321 322 322 321 321 320 321 322 321 320 320 318 313 311 312 314 313 314
316 317 317 317 318 319 320 319 325 324 323 323 322 319 317 316 316 324 325 324 325 326 324 323 323 323 324 322 321 323 321 320 321 321 321 321 320 320 321 321 322 321 319 318 316 317 315 315 314
315 317 316 317 318 318 319 318 322 322 321 321 320 319 314 313 313 315 323 325 325 324 323 323 323 322 322 322 321 321 321 320 321 322 320 320 321 320 321 321 321 321 321 321 321 320 319 319 317

GFSSGP_925_thetae_096.txt.gz
Theta_e
315 319 314 320 322 320 320 318 321 322 322 322 322 322 325 325 328 327 335 340 341 341 344 338 338 341 340 338 338 337 338 341 341 340 340 338 340 340 341 341 341 341 341 341 340 340 341 339 338
317 315 317 321 318 318 319 319 320 322 322 322 322 323 324 325 327 334 339 341 338 339 342 344 339 342 341 338 337 337 338 340 341 341 340 339 340 341 340 340 340 340 340 340 341 341 340 339 338
316 314 319 318 318 318 318 318 319 322 321 321 323 324 325 326 333 334 337 342 340 341 342 344 339 341 340 338 337 337 337 342 341 343 341 339 340 339 339 339 340 340 339 339 341 341 339 338 337
315 316 317 318 317 319 318 318 322 322 321 320 322 323 325 330 334 336 339 342 339 341 342 342 338 340 340 340 337 336 339 346 344 341 340 339 338 337 336 335 338 338 339 338 339 339 339 337 336
316 317 317 317 317 317 319 319 322 322 319 320 321 323 325 333 336 339 341 343 340 342 343 342 336 340 340 339 337 337 336 339 343 341 340 338 337 336 334 334 335 335 336 336 337 339 338 336 335
317 317 316 316 317 317 318 318 319 319 319 318 320 321 323 333 337 341 343 342 342 343 344 343 338 340 339 339 337 337 335 335 335 339 339 338 337 336 334 334 335 333 334 335 334 336 337 335 335
316 316 315 316 316 316 316 317 317 317 317 319 320 322 325 333 337 342 343 343 344 345 344 342 342 340 339 339 339 337 335 335 335 337 338 338 337 335 334 333 333 332 332 329 330 332 336 334 334
316 316 316 316 316 315 316 316 317 317 319 319 321 324 325 333 341 343 343 345 344 345 345 342 341 341 342 342 339 339 337 334 334 334 336 336 336 335 334 332 329 329 329 328 329 330 331 333 333
316 316 317 316 315 315 316 316 317 318 319 319 320 322 330 333 341 343 342 343 343 343 343 342 342 342 343 343 340 339 338 336 335 335 336 334 336 335 333 332 329 327 329 328 327 328 329 331 333
317 318 319 318 316 315 315 316 317 318 318 319 319 324 329 332 338 341 341 340 342 342 342 342 342 341 341 342 341 340 339 337 338 337 335 335 335 335 332 331 328 328 327 327 329 330 327 330 331
316 318 319 318 316 316 315 315 316 315 315 318 319 318 319 327 329 334 337 338 340 341 341 340 341 342 342 340 339 339 338 337 336 336 335 335 334 333 332 332 333 333 329 328 328 328 327 330 331
316 317 317 318 316 316 316 316 316 315 316 316 318 317 318 319 325 328 330 334 338 340 340 339 339 342 340 339 338 337 337 337 335 333 334 334 335 334 333 333 333 332 330 330 329 324 328 330 330
318 318 317 316 316 316 315 315 315 316 316 316 316 316 317 318 320 323 326 330 335 338 339 339 338 339 338 338 337 337 335 335 334 331 331 331 332 332 333 333 332 332 330 329 328 324 329 330 329
317 317 317 316 316 316 316 317 317 317 317 317 317 317 318 319 320 321 324 328 333 336 339 339 338 338 338 337 335 334 335 334 333 333 331 329 332 333 332 332 331 330 329 328 328 328 328 328 328
315 316 316 317 317 318 317 318 318 318 318 318 318 318 318 319 319 321 322 328 331 334 337 339 337 337 336 336 334 334 333 334 332 332 332 331 332 332 330 330 330 329 327 326 327 327 328 327 327
315 316 318 318 317 317 317 321 321 319 319 319 319 319 318 319 319 319 323 326 328 332 335 337 337 336 335 335 333 333 334 332 331 330 330 330 330 330 330 329 330 328 326 326 326 327 326 327 326
318 320 321 320 319 318 317 320 320 319 319 319 319 320 320 320 320 320 320 324 327 330 334 337 337 335 335 334 332 332 331 331 332 331 329 330 329 328 329 329 329 328 326 325 325 326 326 327 325
318 318 318 319 320 319 320 320 320 318 318 319 320 320 320 320 320 320 320 319 323 327 332 336 337 335 333 333 331 331 332 330 331 331 330 330 327 326 327 327 327 327 325 323 324 325 325 326 325
315 316 318 318 318 318 320 320 320 320 319 319 320 320 320 321 321 320 320 320 319 323 329 334 337 335 332 331 330 330 330 329 329 330 328 330 328 327 327 327 327 325 323 324 324 325 326 325 325
313 316 316 316 318 318 318 319 319 319 319 319 320 320 321 321 321 321 320 320 321 323 328 332 336 333 333 332 332 331 329 329 330 329 328 329 327 326 326 326 326 324 323 323 323 325 325 324 324
314 314 314 315 316 316 317 318 319 319 319 318 318 318 317 318 319 319 320 320 322 326 328 331 335 331 332 333 331 330 329 327 328 328 327 327 327 324 324 324 324 323 322 322 323 324 324 324 324
313 312 312 313 314 317 317 319 317 317 316 316 316 322 324 324 324 322 321 320 320 326 328 331 334 328 331 331 331 330 328 327 326 326 327 327 325 325 323 323 323 323 323 323 322 324 324 324 324
310 310 310 311 312 314 316 320 316 314 314 317 320 324 325 325 325 325 323 320 319 325 330 331 331 328 329 330 331 329 329 326 326 327 328 326 325 325 324 325 324 323 322 321 323 323 324 324 324
310 310 312 315 317 322 317 317 315 316 318 322 324 324 324 324 325 325 326 322 320 325 330 332 328 327 328 329 330 329 328 325 326 326 327 325 325 325 325 325 325 323 321 321 321 321 321 321 322
313 316 320 321 322 319 315 316 315 319 324 323 323 323 323 322 324 325 326 327 322 327 331 331 327 327 327 328 328 327 327 325 326 325 326 324 324 323 323 324 324 323 321 320 320 320 319 320 321
314 315 318 315 316 316 317 319 319 322 320 322 322 322 322 322 322 323 324 327 325 327 331 330 328 328 327 327 326 326 326 323 326 325 325 325 323 323 323 322 322 324 322 320 320 321 319 319 319
317 318 316 316 318 319 317 316 317 321 321 321 321 322 322 321 320 320 320 328 328 326 331 329 328 329 326 326 326 324 324 324 325 326 325 325 324 323 322 322 321 322 321 318 317 317 318 316 317
317 316 318 318 322 321 318 318 321 321 323 322 322 322 321 319 317 315 314 328 325 326 330 328 327 327 325 325 325 324 323 323 325 326 325 324 325 322 322 322 321 320 319 319 316 313 313 314 316
317 318 317 318 320 320 319 321 324 323 321 321 320 321 319 316 314 310 310 319 326 328 330 327 326 325 324 325 324 323 323 323 324 325 324 323 322 322 322 321 320 319 318 318 316 314 314 315 315
314 315 316 317 320 319 320 320 323 318 317 320 320 317 315 312 310 307 307 311 323 327 325 325 325 324 324 323 323 323 322 322 323 324 324 323 321 321 321 321 321 320 319 318 315 313 314 315 316

GFSSGP_925_thetae_099.txt.gz
Theta_e
316 319 317 319 322 322 321 322 322 323 323 324 324 324 326 327 330 334 334 338 335 340 345 336 334 335 338 338 339 340 344 343 340 339 337 338 338 339 341 342 342 343 343 344 342 342 342 340 338
316 319 317 320 322 320 323 323 321 322 324 325 325 324 325 326 327 334 336 337 336 339 344 345 336 337 339 338 338 338 341 343 341 340 339 339 338 338 339 342 343 343 343 342 342 341 341 339 339
320 318 318 320 321 321 321 322 322 321 324 324 325 325 325 326 329 331 335 337 336 339 342 345 336 338 339 338 338 338 339 340 342 341 341 339 338 338 338 340 341 341 341 340 342 342 340 339 338
319 318 318 320 321 321 321 322 321 322 322 323 324 325 326 328 332 331 338 337 337 340 340 343 336 337 339 339 337 338 339 341 340 342 342 339 338 338 337 338 339 339 338 338 337 340 339 338 338
317 318 318 318 319 320 321 321 322 322 322 322 323 324 327 330 332 333 338 337 337 339 341 343 333 336 340 339 338 337 338 342 343 342 341 339 338 337 336 336 336 336 336 335 334 336 338 337 336
319 318 319 319 320 320 321 321 320 322 323 322 321 323 325 328 332 336 339 339 339 342 344 344 337 338 340 339 338 337 337 338 337 339 341 339 338 337 336 336 337 335 334 332 333 336 336 333 334
319 320 319 319 320 321 321 321 320 320 321 321 322 322 325 330 333 337 340 341 343 345 345 345 342 340 339 339 339 336 337 336 339 340 340 340 338 337 335 335 335 335 333 334 332 328 332 331 332
319 320 321 321 320 320 321 319 319 319 319 320 322 322 323 333 335 340 341 343 345 348 346 345 344 343 342 342 339 338 336 336 336 337 338 338 338 336 335 334 334 333 333 330 326 325 328 329 329
320 320 321 321 321 321 319 319 319 319 318 320 321 323 330 329 338 341 342 344 344 346 346 345 344 343 343 342 342 339 338 336 336 335 337 337 338 336 335 334 332 331 332 329 329 329 328 329 328
321 322 322 322 322 321 319 318 319 318 318 320 320 322 326 328 334 340 342 343 343 344 345 344 343 343 343 342 343 342 340 340 339 338 337 335 335 337 336 334 331 331 330 328 328 329 328 327 327
320 322 322 322 322 322 319 319 319 319 319 319 319 321 325 326 329 335 337 338 340 342 343 343 343 343 342 341 343 342 341 341 340 339 339 337 336 336 335 334 330 331 330 331 329 328 327 326 328
320 320 321 321 322 321 320 320 319 318 319 319 319 321 321 320 324 327 331 333 336 339 341 343 342 343 342 341 340 341 341 341 340 340 338 336 335 336 334 334 334 335 333 332 331 330 328 326 329
319 320 320 321 320 320 320 320 319 320 319 318 318 318 319 319 320 321 324 327 329 335 340 343 341 342 342 341 339 340 340 339 338 337 338 337 337 335 334 334 333 335 334 332 332 329 326 327 328
320 320 321 321 321 320 320 320 319 319 319 319 319 318 318 318 319 320 322 324 327 331 337 343 342 341 341 340 340 338 339 337 337 336 335 335 336 335 334 334 334 335 333 333 330 328 325 327 328
317 320 321 321 321 321 320 320 320 320 320 320 320 320 319 319 320 320 321 322 325 327 333 343 342 339 341 340 339 337 336 336 336 337 336 333 333 332 333 334 333 333 332 331 330 326 324 328 328
316 318 321 321 320 320 320 322 322 322 322 321 321 322 320 319 319 319 320 321 323 327 330 339 342 338 339 339 338 337 336 335 335 336 336 334 333 332 330 331 331 332 331 330 329 325 327 328 328
317 319 319 319 320 320 320 321 321 322 322 322 322 322 322 321 320 319 319 321 322 325 329 336 342 341 338 338 338 336 336 335 334 334 334 334 333 333 332 331 332 331 329 329 327 326 328 327 327
319 319 320 321 321 322 322 321 321 322 321 322 322 322 323 322 321 320 320 320 322 324 327 333 339 341 339 337 337 334 334 333 334 334 332 331 332 331 332 330 331 330 328 327 327 328 327 326 326
317 318 321 321 321 322 322 322 321 321 322 321 322 322 323 323 323 322 321 320 321 322 326 332 337 340 339 336 335 334 335 332 334 333 332 331 331 330 330 328 329 328 327 326 326 326 326 326 326
317 319 322 321 319 320 321 321 321 322 322 322 322 322 323 323 323 323 322 322 321 321 322 327 334 339 339 335 335 334 334 333 333 332 331 331 330 331 329 328 327 326 326 325 325 326 326 326 325
317 319 318 318 316 318 320 320 319 320 320 321 321 321 322 322 322 322 322 322 322 322 324 324 330 336 338 336 335 335 334 332 332 332 332 330 331 329 328 326 327 325 325 324 324 325 326 327 325
314 315 315 314 317 321 318 320 320 319 320 320 320 320 321 324 324 325 324 324 323 322 323 326 328 333 337 336 335 335 333 332 331 331 329 330 327 326 326 325 326 324 324 324 324 325 325 325 325
313 313 314 315 316 316 317 320 319 319 318 318 319 322 324 325 325 326 326 326 324 322 322 327 329 333 335 336 336 335 334 332 330 328 328 328 327 326 324 324 325 324 323 324 324 326 325 325 325
312 311 312 312 312 315 315 317 319 316 316 318 323 324 324 324 324 325 325 325 326 323 322 328 331 336 334 334 336 335 334 332 329 327 329 329 325 324 324 323 323 323 323 324 324 325 325 326 325
311 312 315 316 317 318 318 319 318 320 323 323 323 323 323 323 323 323 324 325 326 328 322 328 333 335 332 332 334 335 334 331 328 328 329 327 325 323 323 324 323 323 323 324 324 324 325 325 324
312 312 321 321 323 320 316 315 316 321 322 322 321 322 323 323 322 321 321 323 325 328 325 329 334 332 329 330 334 334 333 330 328 327 328 327 325 324 324 324 324 323 324 323 323 324 324 323 323
313 315 316 321 319 320 318 320 322 321 322 321 321 321 321 321 320 319 319 318 323 323 328 330 333 329 329 329 333 333 332 329 327 327 327 326 325 324 323 323 323 323 323 323 322 321 322 322 323
314 314 318 319 319 316 317 318 325 323 322 320 321 322 320 319 317 315 314 312 315 318 327 332 330 330 328 329 330 331 331 327 327 327 326 327 327 324 323 322 321 321 321 321 320 320 320 320 320
316 317 316 316 317 323 323 326 322 319 319 320 321 320 318 316 313 311 307 305 308 312 328 333 329 329 328 328 327 328 329 327 326 327 327 326 326 324 323 322 321 320 320 320 320 319 318 318 319
314 317 315 319 319 318 322 327 319 315 318 322 321 318 315 312 310 306 301 302 303 304 316 329 328 327 326 326 326 325 326 326 326 326 326 325 326 325 324 321 321 320 319 319 318 318 315 315 315

GFSSGP_925_thetae_102.txt.gz
Theta_e
314 317 320 320 320 322 321 321 323 323 323 324 324 325 325 327 333 338 334 338 343 336 325 327 329 331 333 337 340 342 344 342 342 340 337 337 337 338 339 341 342 342 343 344 343 341 340 336 336
314 318 321 319 320 321 321 323 322 323 324 325 325 325 324 326 332 335 336 336 343 344 330 328 327 331 334 337 339 340 343 343 342 340 338 337 337 337 339 341 342 342 342 343 341 342 340 337 337
316 319 320 318 318 321 323 322 323 323 325 324 324 324 324 326 328 334 335 337 339 344 343 330 327 329 334 337 338 339 340 343 342 340 339 338 338 338 339 340 341 341 340 340 339 341 339 338 338
318 322 319 317 319 320 320 322 322 322 323 323 323 324 325 332 331 335 335 336 338 341 345 342 327 327 331 337 338 338 339 340 342 341 340 339 338 338 337 338 339 338 337 337 337 337 337 338 338
317 320 318 317 317 319 322 322 322 321 322 323 322 322 326 330 331 337 335 336 340 341 344 338 327 328 333 338 337 337 339 341 342 341 341 340 339 338 337 339 337 335 332 334 333 334 334 334 336
319 318 318 319 318 319 321 321 320 321 323 322 321 322 326 329 331 338 337 337 339 343 345 335 331 332 334 338 337 336 337 338 340 341 341 341 339 339 336 336 336 336 334 328 327 329 328 331 332
322 320 320 319 320 320 321 322 322 321 322 322 323 321 324 332 332 336 338 338 341 344 345 339 334 336 337 338 337 336 337 338 339 340 341 341 339 338 336 337 337 335 333 328 332 331 327 326 331
322 322 322 322 322 321 321 322 322 321 321 322 322 321 324 332 333 337 341 342 344 346 346 345 342 339 338 338 339 337 336 336 337 338 340 340 339 338 337 337 336 335 333 332 331 328 328 327 329
321 323 323 322 322 322 322 322 321 320 319 320 321 321 330 332 338 339 342 345 348 348 347 346 345 343 343 343 339 338 337 335 335 336 339 340 338 338 336 336 335 334 333 333 329 326 326 326 326
319 324 324 322 322 323 322 322 321 319 319 319 319 321 328 329 337 341 343 346 348 349 348 346 345 344 344 343 341 339 339 337 334 335 336 339 336 337 336 335 334 332 332 330 327 327 328 328 326
320 321 323 322 322 322 323 323 321 319 319 319 321 322 327 328 331 339 340 343 346 346 348 345 344 344 345 343 343 342 342 341 339 338 337 338 335 337 335 334 332 330 331 328 329 329 329 328 325
319 321 322 322 323 323 323 323 322 319 321 321 321 321 325 326 327 331 336 339 342 344 346 345 344 345 343 345 343 342 341 340 339 340 339 338 336 336 335 334 332 331 330 330 328 329 329 328 327
317 321 321 322 321 321 322 322 322 322 321 320 320 320 321 323 321 322 327 330 336 341 343 344 343 343 344 343 340 340 340 341 339 339 338 337 336 337 335 334 332 332 331 332 331 329 328 327 326
315 317 320 321 321 322 322 321 322 322 321 320 320 319 319 319 320 320 321 324 328 336 342 344 343 342 343 344 341 339 339 338 339 338 339 338 336 336 335 333 333 332 332 332 331 331 329 326 327
316 316 317 321 321 321 322 322 321 322 321 321 320 320 320 319 318 319 319 322 324 327 342 344 343 342 342 343 342 340 337 338 338 337 337 337 337 336 334 333 332 333 332 333 332 330 330 324 327
315 317 318 318 320 322 322 324 322 321 321 321 321 321 321 321 319 318 320 320 322 325 333 345 344 342 340 343 342 340 337 338 338 335 336 334 335 335 335 334 332 332 332 332 331 329 328 326 327
314 318 318 318 319 321 321 323 322 322 322 322 322 322 322 322 321 319 319 320 322 322 327 344 344 342 340 342 341 340 337 336 336 335 335 335 334 334 333 333 332 331 331 331 331 329 326 326 327
314 316 317 319 319 320 322 322 321 322 322 323 323 323 323 322 323 322 320 320 320 321 323 342 344 342 338 338 341 339 339 336 335 335 334 333 333 333 333 333 332 330 331 330 331 329 327 327 327
314 315 317 318 321 321 322 322 321 322 321 322 324 323 323 324 323 322 321 320 321 321 324 341 345 344 340 338 338 337 337 335 333 334 335 334 332 332 332 332 330 330 331 330 329 328 328 328 327
311 316 318 320 320 322 323 325 325 322 322 321 322 323 323 324 323 324 324 322 321 322 323 326 342 344 341 338 337 335 334 333 332 333 334 332 332 332 331 330 329 329 330 329 329 328 327 327 326
310 313 319 320 322 320 322 321 323 323 322 322 323 322 322 323 323 324 325 324 325 326 326 323 331 343 342 338 336 335 334 334 332 334 333 334 331 330 331 330 329 328 329 327 327 327 326 326 325
311 313 318 319 321 323 318 325 321 321 320 320 321 323 322 322 324 325 326 326 325 324 324 325 324 332 342 338 335 336 335 335 333 333 332 333 332 331 330 328 327 327 327 326 326 326 326 325 325
311 314 317 316 319 319 319 324 321 320 320 319 320 323 325 326 326 326 326 326 326 326 326 325 325 325 340 337 336 336 336 335 333 332 332 331 330 329 327 326 326 326 325 326 325 326 326 326 325
312 316 316 316 316 324 321 322 320 321 320 320 322 324 325 325 324 324 323 323 324 325 326 329 328 328 339 338 337 337 337 335 333 332 331 329 328 326 327 326 323 324 325 325 325 324 325 326 325
313 316 317 320 323 320 315 316 318 319 319 322 324 323 324 323 322 321 320 320 321 322 325 328 329 330 339 338 337 338 337 336 333 330 330 329 326 325 324 324 323 324 324 324 324 325 324 324 325
312 314 319 315 316 315 313 323 322 321 322 322 323 323 322 321 320 318 317 317 315 318 319 324 324 331 337 336 337 337 336 336 333 329 330 328 325 323 324 324 322 323 323 323 325 326 325 325 324
312 313 315 327 324 328 321 324 320 324 323 322 322 321 320 319 317 315 312 309 308 312 313 316 318 331 334 333 333 336 336 335 331 329 330 328 325 323 325 324 323 323 324 324 324 325 325 325 324
313 313 319 322 330 331 322 324 327 326 322 322 321 319 316 315 313 311 307 304 304 305 307 314 325 333 330 330 330 333 335 334 330 328 329 328 325 324 325 324 323 323 324 324 324 324 324 324 324
314 317 319 321 321 326 326 331 321 321 323 322 319 315 312 311 309 307 303 301 301 301 303 307 329 331 330 329 329 330 333 331 329 328 328 327 326 324 323 323 322 322 323 323 323 323 323 323 323
315 317 317 324 317 323 326 327 321 322 321 318 314 311 309 307 306 303 301 299 299 298 299 301 305 329 329 329 329 329 330 328 328 328 328 327 327 324 323 322 322 321 321 322 321 321 321 322 321

GFSSGP_925_thetae_105.txt.gz
Theta_e
309 314 317 319 314 313 315 315 316 318 318 321 322 322 322 329 336 340 344 335 323 325 327 329 327 328 333 338 340 341 341 341 341 339 337 336 336 337 339 340 340 341 341 342 341 340 339 337 337
309 315 319 316 312 313 314 318 318 318 322 323 322 322 321 333 334 340 344 332 323 324 327 327 327 326 331 334 337 339 341 342 341 340 337 336 337 337 338 340 341 342 342 341 340 341 336 335 336
313 316 314 314 311 313 314 317 318 319 322 323 322 322 322 329 334 334 342 338 324 326 327 326 326 326 328 333 336 338 341 343 342 340 338 337 338 337 338 340 340 338 338 337 337 338 335 336 337
312 317 315 313 312 312 314 316 316 316 321 321 321 321 326 330 334 338 342 340 338 337 327 324 324 325 329 333 335 337 339 342 342 341 339 338 338 337 337 338 338 337 336 335 335 335 335 335 336
315 312 314 312 312 313 314 315 316 316 317 319 319 319 328 330 335 338 341 341 340 343 342 328 324 325 328 333 336 337 338 339 341 341 340 339 339 337 337 338 337 336 332 331 333 333 333 333 335
312 312 313 316 315 314 314 315 316 317 317 320 319 320 325 333 334 336 339 340 340 343 342 330 327 326 327 334 336 337 337 339 340 341 341 340 339 338 337 338 338 335 330 327 332 330 327 328 332
315 314 315 313 314 315 316 316 317 318 318 319 318 320 322 330 335 336 338 339 340 342 340 331 330 329 329 334 336 336 336 337 339 340 340 341 340 338 337 337 336 335 331 330 328 327 328 326 330
317 317 320 319 317 316 317 318 318 319 318 321 318 319 322 329 336 337 340 341 342 343 342 331 332 332 332 335 335 335 335 336 337 338 340 341 340 339 337 336 335 335 334 331 327 328 327 326 330
313 319 322 321 319 319 318 319 320 318 318 319 318 320 330 335 338 342 345 345 345 346 345 339 335 334 333 335 336 335 335 335 335 336 339 340 339 338 336 336 336 335 333 330 331 329 327 326 329
314 315 320 319 319 319 320 320 321 318 317 317 317 326 331 337 339 343 345 346 346 346 346 345 342 339 341 339 337 336 335 334 334 334 338 339 339 338 337 336 336 334 333 331 330 328 327 326 327
311 317 317 317 319 320 320 319 319 317 315 316 316 325 327 328 336 337 344 347 347 347 346 346 345 343 343 342 339 337 337 336 334 333 335 338 338 337 336 336 335 334 333 332 328 327 326 326 326
307 311 316 317 317 318 319 320 319 318 317 317 316 319 324 324 327 333 336 345 347 348 347 346 344 344 345 343 340 340 339 339 338 336 335 337 335 337 335 335 334 331 332 330 327 327 328 328 328
310 309 311 314 317 318 319 319 320 320 319 316 316 316 321 323 322 329 335 340 345 346 348 346 343 343 344 343 342 340 340 339 339 339 338 336 334 336 335 334 333 331 330 329 328 328 329 328 326
313 313 311 312 315 318 320 320 319 319 318 317 318 316 313 320 319 320 325 329 341 344 346 346 344 341 342 345 342 341 341 340 338 338 339 337 336 336 335 334 333 332 330 328 328 328 328 328 327
309 310 312 314 313 313 317 318 319 319 317 317 316 316 315 313 315 314 318 319 325 340 345 345 344 340 343 342 342 341 340 340 338 339 339 337 336 336 335 334 333 331 331 331 331 330 329 328 327
308 309 309 312 314 313 315 319 319 317 317 317 316 315 316 315 315 315 318 318 319 324 343 344 343 342 343 341 342 340 338 338 337 338 336 338 337 336 334 334 333 332 332 332 331 330 330 329 327
306 309 309 311 314 314 315 317 318 318 318 318 317 317 315 315 315 317 318 317 318 319 341 343 343 342 341 343 342 341 339 336 338 337 335 335 338 336 334 334 332 331 332 331 331 330 329 328 325
305 310 310 310 312 315 315 316 316 319 319 320 318 317 317 317 317 318 318 318 318 318 338 342 343 342 341 341 343 342 340 337 338 338 334 334 334 335 336 334 333 333 331 331 331 330 329 328 326
304 308 311 310 312 319 322 321 318 319 320 318 318 318 318 318 317 318 319 318 319 319 341 343 343 341 340 340 342 339 337 336 336 336 336 335 333 333 333 333 333 333 331 330 330 329 328 327 326
304 306 308 309 314 321 321 322 320 319 319 320 320 317 315 317 317 318 319 318 318 320 335 343 342 341 340 338 340 340 338 336 335 335 335 335 333 332 332 332 332 332 331 330 330 329 328 326 327
308 304 305 306 319 321 321 321 320 320 319 320 321 319 318 318 319 319 320 321 324 324 328 343 342 341 340 338 338 338 336 335 334 333 333 334 333 332 331 331 332 331 330 329 330 329 328 326 326
306 304 305 306 320 324 321 324 321 320 320 321 321 318 318 322 322 322 321 320 321 322 324 326 343 341 339 338 336 335 334 334 333 331 331 332 333 331 332 331 330 329 329 329 329 329 327 326 326
311 306 306 308 319 320 321 324 321 323 322 320 320 324 323 322 320 319 318 318 318 318 320 322 324 336 341 338 337 335 333 333 333 332 332 332 333 332 331 331 329 327 329 328 328 328 327 326 326
311 316 319 318 318 317 319 322 322 322 321 320 325 323 320 318 316 314 314 313 312 312 314 316 318 322 332 339 337 335 334 333 333 332 332 332 332 331 330 329 326 326 326 326 327 327 326 326 325
314 314 317 322 319 318 317 320 319 319 322 324 324 321 318 315 313 311 310 308 307 307 309 311 311 316 319 336 336 336 335 335 333 332 331 330 330 328 326 325 323 325 326 325 325 326 326 325 325
314 314 316 319 320 317 315 320 318 321 323 322 319 316 314 312 309 307 305 304 304 305 305 305 307 310 314 329 336 336 335 335 333 332 331 329 327 326 325 324 324 323 322 324 324 325 325 325 325
313 315 316 321 323 318 317 323 322 325 322 318 315 312 310 308 306 304 302 301 302 302 302 302 304 306 315 322 336 336 337 335 334 332 331 329 327 327 324 324 323 321 323 324 324 324 325 325 324
310 313 313 318 324 327 326 326 327 322 319 315 312 310 307 305 303 302 300 300 300 300 299 300 303 309 324 330 336 336 336 335 335 330 329 329 327 325 323 323 323 322 323 323 324 325 325 324 324
313 318 319 320 321 324 330 326 320 321 316 313 310 307 305 304 302 301 300 299 299 298 298 298 300 305 322 333 334 333 334 334 332 329 329 329 327 324 323 323 322 322 323 323 323 323 323 323 323
316 317 319 321 326 324 325 322 317 315 312 309 308 306 304 302 301 299 298 298 298 297 297 297 298 300 306 322 329 329 331 332 330 329 329 328 326 324 322 323 323 322 323 323 323 324 324 324 324

GFSSGP_925_thetae_108.txt.gz
Theta_e
309 310 317 318 312 309 313 313 313 315 316 317 319 321 323 329 334 335 340 335 325 327 333 338 333 334 335 336 339 340 341 340 339 337 336 336 336 338 340 341 342 341 339 339 339 338 338 339 338
308 316 318 312 311 310 311 313 316 316 316 318 320 320 326 335 335 343 339 333 325 324 329 333 333 331 332 333 336 339 340 340 340 338 336 336 337 338 339 341 341 340 338 338 338 337 336 336 337
310 315 312 315 308 310 310 312 314 316 315 316 320 320 324 334 341 340 334 326 326 324 327 329 331 330 330 331 335 338 340 340 340 339 337 337 337 338 339 340 340 338 338 337 337 335 334 334 336
312 315 312 314 312 309 311 312 313 313 314 315 318 321 328 331 341 338 328 327 323 324 327 327 328 329 329 330 334 338 340 341 341 339 337 337 338 337 339 340 338 336 336 335 334 333 334 335 337
313 309 315 312 313 310 311 312 312 312 313 314 316 319 330 332 337 335 328 325 323 326 326 326 327 327 328 330 334 337 339 341 341 340 338 337 338 337 339 339 337 336 334 333 333 332 332 333 335
311 309 312 316 314 313 312 311 312 312 314 315 317 318 328 334 342 342 331 325 325 325 326 326 327 326 329 331 334 336 337 340 341 340 339 339 338 337 337 338 336 335 333 332 331 328 329 331 333
314 311 312 315 313 313 314 313 314 315 316 314 317 318 325 336 339 342 340 338 337 333 330 326 327 329 335 333 334 336 336 338 339 340 340 340 338 338 337 337 336 333 329 327 331 327 327 328 333
313 314 317 316 316 315 314 315 315 316 317 319 315 317 332 330 336 341 343 342 343 341 333 328 329 332 335 335 334 335 336 337 338 338 339 340 339 338 337 338 337 335 333 329 330 327 327 327 332
312 313 319 319 319 319 317 317 318 318 316 316 316 318 325 334 340 344 344 343 342 340 336 328 331 333 334 334 335 335 336 337 337 338 339 340 339 339 337 337 336 334 332 330 329 327 328 326 331
311 312 318 317 318 318 319 319 319 318 317 314 319 329 334 340 342 343 343 344 343 341 336 330 330 333 334 335 334 334 335 336 336 337 338 340 339 339 337 335 335 334 334 331 327 328 328 326 330
306 316 317 317 317 316 317 317 318 318 319 315 315 330 336 339 341 342 342 343 344 343 343 340 333 332 334 335 334 334 334 334 335 336 338 339 339 338 336 336 336 335 333 330 330 329 328 327 329
304 307 310 312 315 315 316 316 316 316 318 317 316 321 331 338 340 341 342 343 344 344 343 343 340 337 339 338 336 335 334 334 334 334 338 339 338 337 336 336 336 335 332 331 331 328 328 327 326
306 307 306 307 307 310 315 317 317 317 317 317 316 317 325 335 338 340 342 343 343 344 344 343 342 341 341 342 338 336 336 335 333 333 336 338 338 337 336 336 335 334 332 332 331 327 326 326 326
307 308 310 311 310 309 310 312 314 317 317 316 315 313 320 323 325 330 338 342 345 345 345 344 343 341 341 343 341 338 338 336 336 335 334 337 336 336 335 335 334 333 332 331 330 328 327 327 328
303 304 305 307 308 310 310 311 311 314 316 317 316 313 312 318 317 322 328 339 343 345 344 345 345 343 341 343 342 340 339 338 338 337 337 336 334 334 335 334 334 332 331 330 330 328 327 328 328
302 302 302 305 307 309 310 313 313 312 314 316 314 313 313 312 317 318 325 327 341 343 344 345 344 344 340 342 344 341 339 339 338 338 338 337 335 335 335 334 333 332 332 330 329 328 328 328 328
302 301 302 303 306 307 308 312 313 312 314 316 317 313 313 313 312 315 319 319 319 334 343 344 344 343 341 340 344 341 341 341 338 337 338 337 336 336 335 334 334 333 332 330 329 330 329 329 328
303 301 301 304 307 307 308 310 312 312 314 316 317 316 312 312 314 313 317 318 318 315 335 341 343 343 341 341 341 341 340 339 338 338 338 336 337 335 335 334 333 333 331 331 331 331 330 329 329
306 303 302 302 303 308 309 309 318 316 314 316 316 314 317 316 314 315 317 317 316 315 324 340 341 341 341 341 340 339 338 338 337 335 336 335 335 337 335 334 334 333 332 331 331 330 327 326 327
304 309 307 304 304 305 315 318 317 317 318 317 316 316 316 314 316 315 316 315 316 314 329 337 340 340 340 341 340 339 337 337 337 337 338 336 333 334 336 335 334 333 332 332 331 329 327 326 326
301 302 309 308 304 306 316 317 317 316 317 318 318 317 317 317 320 320 318 317 319 321 333 340 340 339 339 339 340 339 337 336 335 336 336 336 334 334 333 334 334 334 333 332 330 329 327 327 326
306 304 308 311 307 306 317 316 318 317 318 318 318 318 320 319 317 315 314 312 312 314 317 327 340 338 338 337 338 337 336 335 335 334 334 335 335 335 333 332 332 332 332 331 330 329 328 327 325
308 305 308 309 305 308 315 321 318 319 321 319 318 319 316 313 312 310 308 307 307 308 310 313 319 327 335 336 336 337 336 335 334 333 333 333 333 333 333 332 331 330 331 329 328 327 327 327 326
308 311 311 312 309 308 309 320 317 321 320 325 319 315 312 308 306 305 304 304 304 305 305 308 311 314 317 327 335 335 335 333 332 332 331 331 331 330 332 331 331 331 329 328 327 326 326 327 327
309 312 312 312 315 316 315 321 318 325 325 320 314 310 308 305 303 302 301 301 302 302 302 304 304 307 314 316 326 334 333 332 333 331 331 330 330 330 331 331 331 329 328 328 326 326 327 327 326
312 311 313 320 322 319 318 321 322 319 315 312 309 306 305 303 302 300 300 300 300 300 300 300 302 304 306 315 319 331 334 332 332 331 331 330 330 330 330 330 329 327 326 326 325 326 326 327 326
311 314 312 318 318 314 318 322 320 316 314 310 307 305 304 302 301 300 299 299 299 299 299 299 300 301 304 309 318 323 333 332 333 332 332 331 330 330 330 329 327 324 323 322 323 324 325 325 326
312 313 314 313 313 314 321 322 325 316 312 308 307 305 303 302 300 299 299 298 298 298 298 298 299 299 302 308 319 320 333 333 333 332 331 331 330 329 328 328 325 323 321 322 322 323 324 325 325
313 315 317 317 319 320 324 322 316 312 310 306 305 304 302 301 299 299 298 297 296 296 297 297 298 298 300 304 320 331 333 332 333 332 331 330 329 329 327 325 323 322 322 321 322 323 324 324 324
316 317 317 317 319 321 322 315 307 309 307 305 304 302 300 299 298 297 296 296 296 295 295 296 296 297 298 301 311 327 329 331 330 330 329 328 328 327 326 324 323 322 320 321 322 322 324 324 324

GFSSGP_925_thetae_111.txt.gz
Theta_e
311 309 316 315 311 308 311 311 309 312 313 314 315 317 319 327 332 332 338 337 338 334 339 340 339 340 340 341 340 340 339 338 337 334 334 336 339 341 341 341 341 340 339 339 339 339 339 338 338
308 315 316 309 308 310 309 311 313 312 313 314 315 319 320 331 338 341 338 335 336 330 336 337 337 338 339 339 340 340 339 338 337 335 335 336 338 340 341 341 340 338 338 338 338 337 337 338 338
311 316 312 313 308 307 306 309 311 315 314 313 313 317 324 333 341 339 338 332 329 333 332 332 333 335 337 337 338 339 340 339 338 336 336 336 338 340 341 341 339 338 337 338 337 336 335 336 337
313 313 310 313 313 309 308 310 309 310 312 312 314 313 321 332 339 339 336 326 329 331 329 328 327 332 334 336 336 338 339 339 338 336 336 336 337 339 341 340 337 337 336 336 335 333 333 335 337
311 309 313 313 313 311 309 309 310 312 311 311 313 313 323 334 339 336 330 327 327 330 328 328 330 332 335 334 335 337 338 340 339 337 336 337 338 340 340 338 336 336 335 335 333 333 335 337 337
308 308 312 313 311 312 311 311 311 311 312 312 313 313 325 333 338 334 328 328 328 326 327 328 330 332 334 333 334 337 339 340 340 338 337 337 338 339 338 337 336 335 334 333 332 332 335 336 337
310 309 311 313 313 313 313 312 312 314 313 313 314 315 324 340 337 331 329 330 329 326 328 330 331 333 334 332 334 337 339 340 340 338 337 338 337 337 338 337 335 334 333 332 330 333 334 335 335
312 312 314 311 314 313 313 315 313 314 315 316 315 315 329 332 340 335 335 334 330 328 329 330 333 335 335 334 334 336 338 340 340 339 338 338 337 337 337 336 335 333 331 330 330 331 332 332 333
310 313 316 314 316 315 316 317 317 316 316 317 314 317 323 334 341 340 339 338 333 332 330 331 331 332 334 334 336 336 337 337 339 340 339 339 338 338 337 337 335 332 331 330 328 328 327 328 333
309 309 314 314 316 316 317 318 318 317 317 317 316 316 334 340 342 341 340 339 338 336 333 332 331 331 333 334 336 337 337 338 338 338 339 339 339 338 337 337 337 335 334 330 329 328 327 327 332
307 313 313 314 314 315 316 315 315 315 317 318 317 315 332 337 341 341 341 340 339 338 335 332 330 330 331 334 335 336 337 337 337 337 338 339 339 339 337 337 337 334 332 332 330 327 327 327 330
303 303 305 310 312 312 314 313 314 314 316 315 315 314 325 335 339 340 340 340 340 338 336 332 330 329 331 332 334 335 336 337 336 337 338 339 339 339 337 336 335 334 333 332 328 328 328 326 329
310 309 308 307 305 304 306 307 310 314 315 315 314 315 313 324 337 339 340 340 341 339 337 333 330 329 330 331 333 334 335 335 335 336 337 338 339 338 337 336 335 335 334 332 330 329 327 326 328
303 302 301 302 302 304 308 309 306 309 310 312 314 314 312 316 333 338 338 340 341 341 341 339 336 332 331 333 333 333 333 334 334 334 337 338 338 337 336 336 336 335 334 332 331 330 327 327 326
301 302 302 302 301 303 305 305 307 309 308 310 312 314 312 313 324 335 337 339 341 342 342 342 341 338 335 337 337 334 334 334 333 333 336 338 337 337 336 336 335 335 334 332 331 331 328 327 326
303 302 302 302 301 301 303 306 307 308 308 310 310 312 314 313 316 321 330 338 340 342 342 342 343 341 339 338 339 338 336 335 335 334 334 336 336 336 336 335 335 334 333 332 331 331 328 327 327
303 303 302 302 302 301 301 302 305 307 309 310 311 311 314 312 310 315 322 331 339 342 342 343 343 343 341 340 340 341 338 337 336 336 335 335 336 335 334 335 334 334 333 332 331 330 329 327 329
306 305 304 305 302 300 300 303 306 307 309 311 310 311 313 314 312 312 315 321 331 340 342 343 343 343 342 341 341 341 340 338 337 337 337 337 336 335 334 334 334 333 332 331 330 330 328 327 328
300 300 300 304 306 304 302 301 302 304 308 312 314 311 312 314 311 312 313 312 312 318 339 341 342 342 341 340 339 339 340 339 339 338 337 337 336 335 335 334 334 333 332 331 331 329 329 329 327
305 305 304 303 303 307 307 303 303 305 313 312 314 313 311 314 315 318 316 317 317 318 313 334 340 341 341 340 339 338 339 337 338 337 337 337 336 335 335 335 334 334 332 331 330 329 328 327 326
305 307 306 305 302 307 309 308 304 306 311 314 315 316 316 317 316 314 311 309 309 310 315 332 338 339 339 339 338 338 337 336 335 337 337 337 337 335 336 335 334 334 332 331 330 330 327 327 326
307 307 307 305 305 306 307 307 305 308 311 315 315 316 314 311 309 308 307 306 306 306 310 317 336 338 339 339 338 337 336 336 335 334 334 334 336 335 334 336 335 333 332 331 330 329 329 328 327
307 308 308 306 305 309 310 309 307 316 318 319 316 311 307 305 304 304 304 304 303 304 305 308 315 324 332 338 339 337 336 336 336 335 334 335 336 336 334 333 334 334 333 331 331 329 329 328 327
307 308 309 308 308 312 308 309 309 314 320 315 310 306 305 303 301 301 301 301 301 301 302 304 307 311 316 324 334 336 335 335 335 334 333 333 334 335 335 333 333 332 331 330 331 329 328 328 327
307 310 308 313 306 311 308 310 309 317 314 312 309 305 303 302 301 300 299 299 300 299 299 301 302 306 311 314 319 329 335 335 334 333 333 331 331 332 332 331 332 332 331 330 329 328 327 327 327
309 309 312 314 318 317 316 318 318 311 308 308 306 304 303 301 301 300 299 298 298 298 298 299 300 302 306 309 313 317 329 334 333 332 332 331 330 331 330 331 330 331 330 329 329 327 326 326 326
310 312 311 315 316 320 320 321 313 310 307 304 305 304 303 302 301 299 298 297 297 297 298 298 299 300 303 307 310 313 317 330 333 332 331 331 331 330 329 329 329 330 330 329 327 326 325 326 326
311 313 317 317 319 310 319 319 315 309 308 304 302 302 301 300 299 298 297 297 296 296 296 297 297 299 300 303 309 312 316 320 333 332 331 330 330 330 330 329 329 329 329 327 325 324 324 325 324
314 313 315 316 315 315 316 316 310 308 306 304 302 300 299 298 297 297 296 296 295 295 295 294 295 297 298 300 304 310 322 322 332 331 330 331 330 330 329 329 329 329 327 326 322 321 321 322 323
315 315 316 315 317 319 317 313 305 306 305 303 302 299 298 297 296 295 295 294 294 294 294 294 293 295 296 297 300 303 310 320 330 330 329 330 329 329 328 328 328 328 326 323 321 322 322 323 323

GFSSGP_925_thetae_114.txt.gz
Theta_e
311 309 316 313 309 307 308 307 308 311 312 312 314 316 316 322 334 334 337 339 330 335 341 340 340 340 339 339 338 337 337 335 334 335 341 343 343 341 339 339 339 339 339 340 340 340 339 338 339
309 315 315 307 306 306 305 308 311 309 309 311 312 315 319 326 334 339 339 337 333 336 340 340 339 340 340 339 339 338 337 336 334 334 337 342 342 340 340 339 340 339 339 339 339 339 338 337 338
313 315 310 312 305 304 305 305 309 311 310 312 311 314 318 330 337 338 338 336 334 335 338 338 339 339 340 340 339 338 338 337 335 334 335 338 340 340 340 340 339 338 338 338 337 337 337 337 337
313 311 307 311 311 307 306 309 308 309 310 311 312 311 312 327 338 338 337 337 334 333 336 336 337 338 338 339 340 339 338 337 335 334 335 337 339 339 340 338 337 337 337 336 336 335 336 337 337
311 307 307 312 312 311 309 308 310 311 310 310 311 311 313 322 336 338 336 337 333 334 335 336 336 335 335 337 339 339 339 338 336 335 336 337 339 340 339 337 336 336 336 336 335 334 335 336 337
305 307 311 309 309 311 311 310 310 311 311 311 312 312 314 327 337 337 335 333 329 330 334 335 334 332 332 335 337 338 339 338 337 336 336 337 338 339 338 337 336 336 336 335 333 333 335 336 337
307 308 308 311 311 313 312 311 312 313 313 312 312 315 314 329 336 336 335 333 332 332 334 335 334 333 333 333 335 337 339 339 338 336 337 337 337 338 337 337 335 335 335 333 333 334 336 336 336
309 309 313 310 311 311 312 313 313 313 313 314 313 315 315 325 328 335 334 334 334 335 334 334 334 333 335 336 336 337 339 339 338 337 337 337 337 337 337 336 335 335 334 332 333 334 335 335 336
308 311 313 313 314 313 315 317 316 315 314 317 315 316 316 331 334 335 335 335 335 335 334 332 331 333 333 337 336 337 339 340 339 338 337 337 337 337 337 336 335 334 333 331 332 333 333 334 335
307 307 310 310 313 314 315 315 315 316 317 315 316 315 332 340 339 336 335 334 334 335 334 332 330 333 334 336 337 337 339 340 340 339 338 338 337 336 336 336 335 333 330 331 331 331 329 333 334
305 307 309 309 310 312 313 313 314 315 316 316 316 314 321 336 340 338 335 334 332 333 333 333 332 333 335 335 336 337 337 339 340 339 339 338 338 337 337 336 335 332 331 332 330 328 327 327 332
307 303 303 302 304 303 303 308 307 309 312 313 313 313 314 327 335 338 339 337 334 332 332 332 332 333 334 335 336 337 337 337 338 339 339 339 338 338 337 337 336 335 334 330 329 329 327 327 330
302 305 307 303 300 300 302 302 306 307 307 307 307 311 312 312 325 335 339 340 339 336 333 331 331 333 333 333 334 336 336 336 337 338 338 339 339 338 337 337 336 336 333 331 331 329 328 327 329
301 300 300 301 300 300 302 301 303 305 306 306 306 307 310 311 311 321 335 338 339 338 336 333 331 332 333 333 331 332 334 335 336 336 337 338 339 338 337 337 335 335 334 333 332 328 329 327 327
301 301 303 303 301 300 300 301 301 302 302 305 307 307 308 310 310 313 326 336 339 339 338 335 332 333 332 332 331 331 332 334 335 335 336 337 338 338 337 337 336 335 334 333 332 330 330 327 326
301 301 303 302 301 301 300 301 301 300 301 303 304 306 308 309 309 312 320 333 337 339 340 337 333 332 331 331 331 331 331 332 333 334 335 336 337 338 337 336 336 337 336 334 332 331 330 328 327
301 303 304 304 302 300 299 301 301 300 301 302 303 305 307 308 309 311 314 327 336 339 340 340 338 335 333 332 332 333 332 332 332 333 333 335 337 337 337 336 335 337 336 333 332 331 330 328 326
301 302 302 303 303 303 304 304 303 303 301 302 303 305 306 308 309 311 312 318 335 338 339 340 340 339 337 336 336 336 335 334 333 333 333 333 336 337 336 336 335 334 334 333 332 331 328 328 326
300 300 300 300 301 300 301 302 303 303 303 302 302 303 306 309 310 314 314 312 320 331 339 340 340 341 339 338 337 336 337 337 336 335 334 333 334 335 335 335 334 334 333 333 332 332 328 326 327
304 304 304 303 302 304 303 303 302 304 304 304 304 303 308 308 316 312 309 308 311 313 317 337 341 340 339 339 339 337 337 337 336 336 336 335 335 334 335 334 333 333 332 332 332 330 328 328 327
303 303 302 302 304 305 304 302 303 304 303 304 305 307 312 312 310 309 307 304 305 306 311 320 335 341 340 339 338 337 337 336 336 336 336 336 336 336 335 334 333 333 332 330 329 329 329 328 327
303 302 303 305 307 308 304 307 306 303 304 306 309 306 305 304 304 304 303 302 301 302 307 316 332 338 338 339 338 337 337 336 336 336 335 335 336 336 335 334 335 333 333 331 330 330 330 328 326
304 305 306 306 308 308 307 309 306 307 309 313 309 306 303 301 300 300 300 301 300 300 302 308 315 326 331 337 338 337 336 336 336 335 334 335 336 335 336 335 333 333 332 331 331 330 329 328 328
305 306 307 308 308 310 307 307 307 318 318 312 309 306 305 302 300 300 299 299 299 299 301 302 307 311 319 326 333 336 336 336 334 334 334 334 334 334 334 334 335 333 332 331 330 330 330 329 328
305 307 308 309 312 312 307 306 311 312 311 308 307 306 303 303 301 300 299 299 299 299 299 300 302 304 309 313 317 325 332 335 335 334 333 333 332 332 335 334 334 333 332 332 331 330 329 329 328
305 307 312 315 315 317 312 314 312 308 305 305 304 304 302 302 301 300 298 297 297 297 297 298 299 301 304 309 311 313 321 328 333 334 333 332 332 332 333 334 332 333 331 331 331 330 329 329 328
308 309 311 314 314 316 320 313 310 307 305 303 301 302 301 300 300 299 298 297 296 296 296 296 297 299 300 302 307 312 315 318 326 332 333 332 332 332 332 332 332 331 330 331 330 329 329 328 327
309 310 316 315 318 317 317 313 311 306 305 302 300 299 299 299 298 297 296 295 295 295 295 295 295 297 298 299 302 305 311 317 319 325 331 332 331 331 331 330 330 329 330 329 329 328 327 327 326
314 313 315 316 315 318 316 312 308 305 303 301 300 299 298 298 297 296 295 294 294 294 293 293 293 294 296 297 299 302 305 313 319 319 330 330 330 330 330 330 329 327 329 328 328 327 327 326 324
314 315 315 318 316 318 316 309 304 304 303 302 298 297 296 296 295 293 293 293 293 292 292 292 292 293 293 295 296 298 301 305 311 319 321 330 330 329 329 328 327 326 326 327 327 326 325 323 322

GFSSGP_925_thetae_120.txt.gz
Theta_e
314 313 316 317 318 316 317 317 316 316 317 318 318 317 318 320 322 332 338 342 342 344 348 342 340 339 337 336 336 336 336 337 342 343 342 338 337 338 339 340 341 340 340 340 340 340 341 338 337
313 314 316 317 317 318 319 318 317 316 316 316 317 318 320 322 328 328 337 343 342 344 348 347 340 339 337 337 336 335 336 336 339 343 342 339 338 339 339 340 339 340 340 339 340 340 339 338 337
314 315 319 319 320 321 321 317 316 316 315 316 316 318 318 320 323 329 333 343 341 345 347 348 340 339 338 337 336 336 335 336 338 342 342 340 339 338 338 338 340 340 339 339 340 339 338 337 338
315 316 315 320 322 320 318 317 316 316 316 316 317 317 318 318 323 331 338 342 342 344 347 348 340 339 338 337 337 336 335 336 338 341 341 340 339 339 339 339 340 340 339 339 340 339 338 338 338
314 317 321 321 322 321 319 319 319 318 318 318 318 319 320 321 328 328 334 343 341 345 347 348 340 339 338 338 337 337 336 336 339 341 342 340 341 339 339 339 339 339 339 339 340 338 337 338 337
317 317 320 322 322 320 319 320 320 319 319 319 319 320 321 323 326 329 333 342 343 345 347 348 341 340 339 338 338 337 336 336 339 342 342 342 340 339 339 339 339 339 339 339 338 337 337 337 337
316 316 317 318 318 319 319 319 319 320 320 320 320 320 322 322 329 330 336 341 345 346 347 347 346 342 339 339 338 338 337 336 336 339 341 341 340 340 340 339 338 338 338 338 337 336 337 336 336
316 316 315 316 316 316 317 317 317 317 319 318 319 321 322 322 323 328 334 340 344 346 347 347 347 346 345 343 339 338 338 337 336 336 337 338 338 339 339 338 337 338 338 337 336 335 335 335 336
313 313 313 313 315 315 315 317 317 318 318 318 319 320 320 319 317 318 324 332 341 344 344 346 346 345 345 345 343 340 338 338 337 337 337 338 341 341 340 339 338 337 337 336 334 333 335 336 337
310 311 311 313 313 314 314 313 313 312 313 314 314 315 316 313 314 315 316 322 332 340 342 342 343 344 344 344 344 343 343 341 341 342 342 342 342 342 341 340 338 337 336 334 333 334 335 336 337
307 308 308 310 309 309 308 307 308 308 309 309 310 310 310 310 311 313 314 315 322 332 339 339 340 341 341 342 344 342 342 340 342 342 343 342 342 342 341 341 338 338 335 336 335 336 336 336 336
307 307 307 308 307 306 306 307 306 307 307 308 308 308 308 309 310 310 311 312 314 326 335 338 338 339 339 340 340 340 343 342 343 343 343 342 343 343 341 340 339 338 337 336 336 336 336 336 336
306 306 306 306 306 306 306 306 307 307 307 307 307 307 308 308 308 308 309 311 313 316 326 336 337 337 338 340 338 339 341 342 342 342 343 343 342 342 341 340 339 338 337 337 336 336 335 335 335
307 306 306 306 307 307 306 307 307 307 307 306 306 307 307 307 308 307 307 309 311 314 320 333 337 337 337 337 338 339 340 340 342 342 341 344 342 341 341 340 339 338 337 337 337 336 334 333 333
306 306 307 308 307 306 306 306 307 307 307 307 307 307 307 308 307 308 307 307 309 312 314 326 337 337 336 336 338 337 338 338 339 339 340 340 340 341 340 340 339 338 337 338 337 336 335 334 333
307 307 308 307 307 307 306 307 307 307 307 307 307 308 307 308 308 307 307 307 307 309 312 315 334 337 336 336 336 336 336 336 340 340 339 338 339 340 339 340 338 338 337 336 337 336 335 334 333
308 307 307 307 307 306 305 306 306 307 306 306 307 307 308 308 309 307 307 307 308 309 311 314 324 338 337 336 335 335 335 336 337 337 338 339 340 338 337 337 339 338 336 334 336 336 335 334 334
307 308 308 308 307 307 307 307 307 307 307 307 308 309 309 308 308 307 307 307 307 308 311 313 317 337 337 336 336 335 335 335 335 337 337 339 338 337 336 337 337 336 335 333 334 334 335 335 334
306 307 308 308 308 307 307 307 308 309 309 309 309 309 309 309 309 306 306 307 307 308 314 315 316 329 338 337 336 334 335 334 335 336 336 337 337 336 336 335 334 335 334 333 334 334 335 335 334
308 308 309 308 307 307 308 309 310 309 312 313 313 312 311 311 310 308 307 307 313 314 314 318 320 324 337 338 336 334 335 334 334 335 335 337 335 336 338 336 334 333 333 333 332 332 332 333 333
310 309 309 308 308 310 310 311 311 311 310 308 308 308 308 309 309 310 312 312 312 313 314 316 326 326 335 337 338 336 335 335 335 334 335 336 336 336 337 335 334 333 333 333 332 332 332 332 331
311 307 306 307 310 313 311 315 312 311 309 306 306 304 305 304 305 305 306 306 306 307 308 314 323 332 337 338 338 337 337 337 337 336 335 335 335 336 334 336 334 335 334 333 332 331 331 332 330
309 309 308 309 312 313 313 314 313 309 307 305 303 302 301 301 302 302 302 301 302 301 303 309 314 322 334 339 338 338 339 339 339 338 337 336 334 336 336 336 336 335 334 334 333 331 331 332 332
309 310 312 313 313 316 314 315 315 309 306 303 303 300 299 298 299 300 300 300 299 299 300 304 309 310 318 325 335 338 338 340 340 339 338 336 335 334 335 336 336 335 335 334 332 331 331 331 332
310 314 317 317 320 314 315 316 311 307 306 304 302 300 298 297 296 297 298 299 299 298 298 301 304 306 309 312 316 324 335 336 339 339 339 337 336 334 334 336 336 334 334 334 333 333 332 333 333
312 314 315 318 318 318 314 317 312 305 303 301 299 298 297 296 295 294 294 296 296 297 297 298 300 302 305 307 311 314 316 322 328 333 334 338 336 335 335 334 334 334 334 333 334 334 333 333 332
313 314 313 316 317 319 319 313 308 305 303 300 298 296 296 295 294 293 294 294 295 295 295 296 298 299 300 303 306 308 310 312 315 321 327 332 336 335 334 335 334 334 334 334 333 334 333 333 333
313 313 316 319 321 321 320 314 310 305 302 301 298 296 295 294 293 292 293 292 293 293 293 293 295 296 297 299 301 303 304 306 308 313 318 322 326 332 334 333 333 333 333 333 333 332 332 331 331
313 315 315 317 317 320 321 315 307 304 301 299 296 295 294 294 292 291 291 290 290 291 291 292 293 294 295 296 297 298 300 301 302 304 307 312 318 325 331 332 331 331 331 331 330 330 331 331 330
310 313 316 320 319 320 320 313 304 301 300 297 296 294 294 293 292 290 290 289 288 289 290 290 292 293 293 294 294 294 295 296 297 298 300 304 309 319 326 329 330 330 330 330 329 329 329 330 329

GFSSGP_925_thetae_123.txt.gz
Theta_e
314 317 317 319 322 320 321 321 321 320 320 321 320 319 320 320 323 328 329 342 342 342 353 344 344 343 339 338 338 340 342 343 343 342 339 336 336 336 337 340 339 341 343 343 340 340 339 339 338
317 317 318 323 322 323 323 323 320 321 319 319 319 319 320 323 327 327 331 335 340 343 350 348 343 341 338 337 338 338 339 342 343 343 341 338 337 337 339 340 341 342 342 340 340 340 341 339 337
315 317 322 324 324 325 324 323 320 319 318 318 318 320 319 322 323 327 331 339 343 344 349 349 341 339 338 337 336 336 336 336 341 343 342 340 338 338 339 340 341 340 339 339 340 340 340 339 338
317 319 321 323 325 325 324 323 321 321 321 320 320 320 321 320 325 328 330 339 343 345 348 349 343 339 338 337 336 336 336 336 337 342 343 341 338 339 339 341 340 340 339 339 340 340 339 338 338
317 321 323 324 324 324 325 324 323 324 323 323 322 322 323 323 326 329 332 336 343 344 347 350 346 340 338 337 337 336 336 336 338 341 342 341 339 340 339 340 340 340 339 339 339 339 338 338 339
318 319 321 322 322 323 324 322 322 322 323 323 323 324 324 323 328 329 333 337 344 343 347 352 347 340 338 337 337 336 336 336 338 340 342 341 340 339 339 340 341 340 339 339 340 338 338 338 338
317 317 318 319 319 319 320 320 320 320 320 320 322 322 323 324 325 322 327 336 343 347 348 350 348 344 339 338 338 337 336 336 339 341 341 341 340 340 340 340 340 340 339 339 339 338 337 337 337
315 316 316 317 317 318 319 318 319 318 319 320 320 321 324 324 321 319 319 324 340 347 350 350 350 347 346 343 338 338 337 337 339 341 342 342 341 340 340 340 340 339 339 338 337 336 337 336 336
313 312 313 314 315 316 317 316 319 317 316 315 316 319 320 319 318 316 317 319 322 341 347 349 349 348 347 347 345 339 338 337 337 340 341 342 342 343 342 341 341 339 339 338 337 336 336 336 336
310 312 312 314 313 315 314 314 313 312 311 312 313 315 314 313 312 312 314 317 318 320 340 347 347 347 347 345 346 344 343 341 342 342 343 342 342 343 342 341 341 338 338 338 336 334 335 335 338
309 309 311 310 311 310 310 310 310 310 309 311 311 311 311 310 310 311 311 313 316 317 320 342 345 346 344 344 343 344 342 342 342 343 343 342 342 342 341 341 341 340 338 338 335 335 337 337 337
310 311 310 310 309 309 309 309 309 309 310 310 310 310 310 310 311 311 311 311 313 315 316 329 343 343 341 344 342 342 340 340 340 342 343 343 343 342 341 341 340 340 339 338 337 337 336 336 337
309 310 309 309 309 309 309 309 309 309 310 310 310 309 309 310 310 309 310 310 310 312 314 317 334 342 341 343 341 340 341 341 340 341 342 344 343 343 342 341 340 339 339 339 337 337 337 336 336
310 309 309 309 310 310 310 310 309 310 310 310 310 309 310 310 310 309 309 309 310 310 312 315 319 339 341 340 342 340 340 341 342 343 343 344 344 343 342 341 341 339 339 338 337 337 337 337 336
309 309 310 311 310 309 309 308 310 310 310 310 310 310 310 310 309 310 309 310 309 310 310 312 316 330 340 340 340 340 340 341 341 341 342 343 343 343 342 340 341 339 340 337 337 336 336 336 335
310 311 312 311 311 309 309 309 310 310 310 309 309 309 309 309 309 309 309 309 309 309 309 310 312 316 339 340 338 340 339 340 340 341 340 341 343 342 342 340 340 339 338 338 337 338 337 335 335
312 311 311 311 311 310 309 310 311 311 310 310 310 310 311 311 311 310 310 309 309 309 309 310 311 314 326 340 339 339 338 339 338 339 340 340 341 340 341 340 340 342 339 339 338 338 337 336 336
311 310 311 311 311 311 310 310 311 311 311 312 313 314 314 314 314 312 311 310 309 309 309 309 311 314 317 339 339 338 338 338 337 337 339 340 339 339 339 340 339 339 339 337 338 338 338 337 335
310 311 312 312 311 310 311 311 311 312 314 314 312 311 311 311 310 309 311 311 310 308 308 309 310 314 318 333 339 339 339 337 337 336 337 341 339 339 339 338 338 338 339 337 336 337 338 337 336
311 313 313 312 311 310 311 313 313 312 314 311 310 309 308 306 306 306 306 310 312 314 314 314 315 316 318 320 338 338 338 336 336 335 337 340 339 338 338 338 337 337 337 337 336 336 336 337 336
313 314 314 311 310 311 313 313 313 314 313 310 308 307 305 302 302 303 303 303 306 308 309 313 314 314 317 321 337 338 338 336 336 335 337 339 340 337 337 337 337 336 336 336 336 335 335 336 336
314 313 310 311 312 314 313 317 315 314 312 309 307 305 302 301 301 299 300 300 301 302 303 305 308 313 317 322 330 338 338 337 336 335 336 338 339 338 336 337 337 335 335 335 335 335 335 335 333
312 313 313 314 315 316 315 317 316 313 311 308 306 303 300 299 299 297 297 296 298 299 299 300 304 312 314 318 326 338 337 338 336 336 336 337 339 338 337 336 336 335 334 334 335 334 335 334 334
313 314 315 317 317 318 317 316 317 311 307 306 303 301 299 298 297 297 295 294 296 297 298 298 303 308 309 315 331 338 337 339 337 338 339 339 338 337 338 336 335 335 334 334 334 333 333 334 334
314 315 318 317 320 319 316 316 314 309 305 303 302 300 298 297 296 295 293 293 293 295 296 298 301 304 306 312 317 325 336 337 339 340 340 339 337 336 338 338 338 335 335 334 334 333 333 332 333
313 314 316 316 318 317 315 319 314 307 305 302 300 299 297 297 295 293 292 292 291 293 294 297 300 302 304 308 311 313 317 327 326 326 325 336 336 336 336 336 338 338 336 334 334 334 333 333 333
315 314 316 320 317 323 320 317 311 307 305 301 299 298 296 295 294 292 291 291 290 291 292 295 298 299 300 302 306 308 310 314 321 320 323 326 328 334 336 336 336 337 335 335 334 334 335 334 334
314 313 317 319 323 322 319 318 315 306 303 301 299 297 296 294 293 292 290 290 290 290 291 294 296 297 297 299 302 303 304 305 309 314 314 315 321 326 333 336 335 335 335 335 334 334 335 335 335
315 316 317 317 317 322 322 317 306 304 301 299 298 297 295 294 293 291 290 289 289 289 290 292 295 296 296 296 296 297 299 300 301 303 305 307 311 317 324 330 333 333 333 332 333 333 333 334 334
311 313 313 319 318 321 327 315 304 302 300 298 297 296 294 293 292 291 290 289 288 288 290 291 291 294 295 295 295 296 296 296 296 296 298 300 302 304 310 319 327 328 331 331 330 331 330 331 332

GFSSGP_925_thetae_126.txt.gz
Theta_e
314 319 320 320 322 322 321 321 323 321 321 321 320 319 318 319 321 328 333 335 339 351 348 343 343 341 340 338 337 339 341 343 343 343 340 336 335 335 335 337 335 340 345 344 342 340 339 339 338
315 318 319 322 324 323 322 324 321 320 320 319 320 320 320 322 325 328 331 335 342 344 352 345 343 343 340 338 338 340 341 343 343 343 340 336 336 335 335 338 338 340 343 341 339 339 340 339 338
315 319 321 324 325 325 324 324 322 320 319 319 319 320 320 321 323 329 332 335 343 344 352 350 345 344 339 338 338 339 340 342 343 342 341 337 337 336 336 339 339 341 341 340 339 340 340 339 337
319 320 320 323 324 325 325 325 322 322 322 320 321 321 322 322 325 330 333 336 344 346 350 349 347 342 339 338 338 338 337 339 341 342 342 340 338 337 337 339 341 340 339 339 339 340 339 339 337
317 319 322 323 324 324 324 325 325 324 323 324 323 322 323 325 328 328 332 338 343 347 349 349 348 340 339 338 337 336 336 336 337 340 342 342 339 338 338 339 340 339 339 338 339 339 339 337 337
317 318 319 319 321 321 322 323 323 322 321 322 322 323 325 327 323 321 321 331 342 346 353 351 349 342 339 338 337 337 336 336 337 338 341 342 339 338 339 339 339 340 339 339 339 339 339 338 338
316 317 317 317 318 318 319 321 319 320 319 320 321 321 323 324 322 320 319 320 331 345 348 353 351 345 339 338 338 337 337 337 337 338 341 342 341 339 339 339 340 340 340 339 339 338 338 338 337
314 313 313 314 316 316 317 318 318 319 319 318 317 318 320 322 317 316 315 315 319 340 348 350 351 346 341 339 338 337 337 337 338 339 341 341 340 340 339 340 340 339 339 339 339 338 337 337 336
311 311 312 312 314 314 316 315 316 316 314 313 314 314 316 317 313 313 313 313 315 319 328 346 349 348 346 345 342 338 338 338 339 341 342 342 341 341 340 340 340 339 339 339 338 337 336 336 336
310 310 312 313 312 311 312 311 312 311 311 311 312 313 313 312 312 312 312 312 313 316 318 339 344 348 348 347 347 343 339 338 338 340 342 343 344 343 343 342 342 339 338 338 338 336 336 335 335
311 310 311 311 311 311 310 310 310 309 309 310 310 311 311 311 311 311 311 311 312 312 315 316 343 344 345 348 347 346 343 342 341 342 343 342 343 343 342 342 341 340 338 338 337 335 335 333 339
310 311 312 311 311 310 309 309 309 309 311 311 311 311 311 310 311 311 311 311 311 311 311 313 318 344 344 345 346 347 345 344 343 342 343 342 343 343 340 341 341 340 338 339 337 335 334 336 337
310 310 311 311 310 310 310 310 310 311 311 311 311 311 311 310 310 310 310 310 310 310 311 310 312 336 344 343 341 344 344 344 343 343 342 343 342 343 342 341 341 341 340 339 337 338 335 337 337
311 311 310 310 310 311 311 310 310 310 312 311 310 310 310 310 311 310 310 310 311 311 310 310 310 312 343 342 339 343 342 343 342 342 344 341 344 344 342 340 341 339 341 339 338 338 338 338 336
311 309 310 312 312 311 310 309 310 311 311 311 311 311 310 310 310 310 310 310 310 310 310 310 310 310 313 342 341 338 343 343 340 344 343 340 344 344 342 341 341 340 338 339 338 338 337 336 336
310 311 312 312 312 312 310 309 310 311 311 311 311 311 312 313 315 313 313 313 313 313 311 310 310 309 310 320 341 340 338 342 342 342 344 342 342 345 343 341 342 341 339 338 338 337 336 336 336
312 312 313 311 312 311 311 310 311 311 311 312 314 314 313 312 311 309 309 309 310 312 314 314 311 311 309 312 331 338 338 341 342 340 340 343 344 343 342 342 341 341 339 339 337 337 336 337 335
313 311 310 310 312 312 312 311 311 311 312 315 314 311 311 309 308 306 305 306 306 308 311 313 314 312 311 311 317 337 338 337 341 340 340 341 341 343 340 342 342 340 340 337 337 337 337 337 336
311 310 310 312 313 312 311 311 310 312 315 314 311 310 308 307 305 304 303 302 303 304 306 309 310 313 315 311 320 335 338 336 339 340 341 341 340 340 339 340 342 341 341 340 338 338 338 338 337
310 311 312 313 313 312 311 310 311 313 313 311 309 308 306 304 303 302 301 299 300 301 302 304 305 307 309 314 317 322 333 336 337 340 339 342 340 340 339 339 338 339 339 339 337 337 339 338 337
311 313 313 313 311 311 312 312 312 314 312 310 307 305 303 302 301 300 299 298 298 298 299 300 301 302 305 308 314 316 318 333 335 338 338 342 341 341 340 338 337 337 337 337 335 335 336 338 336
312 313 312 312 313 314 313 317 315 315 313 309 306 303 301 300 299 299 298 297 296 296 297 298 299 300 302 306 310 316 318 321 334 337 337 341 342 340 340 337 337 336 336 335 336 334 335 335 337
314 313 313 313 314 316 317 318 315 314 312 308 304 302 299 299 298 297 295 294 294 294 295 295 297 298 301 304 310 312 314 318 323 336 337 339 342 340 339 336 337 336 335 335 335 334 335 334 336
313 313 314 315 316 320 317 319 317 311 308 306 303 300 298 298 297 295 293 292 292 292 292 293 294 298 300 304 307 312 316 319 321 335 336 339 342 339 338 335 337 336 334 334 334 334 334 333 335
313 315 317 316 320 319 315 316 316 309 306 304 302 299 297 297 295 294 292 291 291 291 291 291 293 297 300 302 307 313 317 323 329 334 336 338 341 340 337 336 336 336 334 334 333 334 333 333 334
314 314 315 315 318 320 315 317 312 307 304 302 299 298 296 296 295 293 291 291 290 290 290 290 292 295 299 301 306 310 315 318 324 326 326 337 339 339 339 336 335 335 335 334 333 333 334 333 333
315 315 315 318 316 320 319 317 312 306 303 301 298 296 296 295 294 292 291 290 289 289 289 289 291 295 298 299 302 304 307 312 313 317 322 319 327 330 336 336 338 336 335 334 333 333 333 333 333
312 313 316 319 321 319 316 322 318 306 303 301 298 296 295 294 293 292 290 290 289 289 289 290 292 293 295 298 298 299 300 302 305 313 315 314 318 325 318 330 334 334 336 336 334 334 334 333 332
315 316 317 317 318 320 322 317 306 304 301 299 297 296 295 294 292 291 290 289 290 289 289 290 291 292 293 294 295 295 296 297 299 302 302 310 312 312 319 318 322 327 330 332 334 335 334 334 335
312 313 313 315 315 318 318 317 304 302 300 298 295 295 295 293 292 291 290 289 289 289 289 289 291 292 292 294 293 294 294 294 294 296 297 297 303 309 306 309 309 310 315 319 323 324 330 333 334

GFSSGP_925_thetae_129.txt.gz
Theta_e
314 318 319 319 316 313 315 316 316 315 316 316 317 316 316 318 325 337 334 341 344 347 343 342 340 339 339 338 338 337 338 341 341 342 338 335 334 332 332 333 333 333 339 340 338 338 337 337 336
314 317 318 314 317 318 317 318 314 314 317 317 317 316 317 322 328 332 334 341 344 350 345 343 341 340 340 338 338 339 340 342 342 342 339 336 334 333 332 334 333 340 343 342 340 339 338 337 337
317 318 314 316 317 319 318 320 317 315 316 317 317 317 319 320 329 332 337 342 347 350 349 345 342 341 340 338 338 339 340 342 342 342 340 337 336 334 333 336 336 338 341 340 338 339 339 338 337
317 314 313 317 319 319 320 320 320 320 318 317 319 319 324 322 325 323 336 334 343 351 350 349 344 343 340 338 338 339 341 342 341 342 341 338 337 335 334 336 336 339 339 339 339 339 339 339 337
316 311 315 318 319 319 320 317 319 319 319 318 319 318 325 321 320 319 319 321 336 348 349 348 347 342 342 338 338 338 338 338 340 342 342 340 338 336 336 337 338 338 338 339 339 338 338 338 337
310 310 313 313 315 316 315 314 317 318 317 317 318 320 324 321 319 316 316 315 324 341 350 348 348 344 339 338 337 337 336 336 336 339 341 341 340 338 337 337 339 338 338 338 338 338 338 337 337
312 310 312 312 314 314 315 315 316 317 317 314 314 316 320 317 314 313 312 314 314 337 343 352 351 349 343 338 337 337 336 336 336 337 340 341 341 339 338 338 339 339 338 338 338 337 338 337 337
306 306 310 309 310 312 313 314 314 311 315 313 312 314 311 314 311 311 311 311 312 318 324 343 349 348 345 339 337 337 337 336 337 337 339 341 341 340 339 339 339 339 339 338 338 337 337 337 336
309 305 306 308 310 308 309 309 311 310 310 311 310 310 310 310 310 310 310 311 310 311 311 335 346 348 347 340 338 338 337 337 337 339 340 341 341 340 340 339 340 340 339 338 338 337 336 336 335
305 303 306 308 308 308 309 309 308 307 307 308 309 310 310 310 310 309 309 309 310 311 311 313 341 348 349 345 342 339 338 337 338 339 341 341 341 340 340 339 340 339 339 339 338 337 336 336 334
306 304 306 308 309 307 306 306 307 306 306 307 308 308 309 309 309 308 309 309 309 310 310 310 310 326 347 346 347 346 343 338 337 339 342 341 341 341 341 340 341 341 339 339 338 337 335 335 333
308 307 308 308 308 307 307 306 306 307 308 308 308 308 308 308 307 308 309 309 309 310 310 310 310 310 326 345 343 344 346 343 338 337 340 342 342 344 342 342 341 341 339 338 337 336 334 332 337
306 307 307 307 307 307 307 307 307 308 308 307 307 308 306 307 308 309 309 309 310 310 310 310 309 309 310 317 341 342 341 345 343 340 339 342 341 342 344 342 342 340 339 337 337 336 333 332 337
308 308 307 307 307 306 307 307 308 308 307 307 308 307 305 306 308 308 307 307 307 308 309 311 312 311 310 310 322 339 342 343 345 343 341 341 341 340 342 341 341 340 339 337 337 336 333 335 337
308 307 306 307 307 307 308 308 307 307 307 310 309 307 309 309 307 305 305 304 304 305 305 308 310 312 311 310 314 326 340 339 343 343 343 341 342 340 344 341 341 340 340 338 339 337 336 336 337
308 307 307 309 309 308 306 307 307 307 309 308 309 309 308 307 305 304 303 302 302 302 302 304 305 308 311 313 312 309 322 336 337 341 342 342 341 341 344 341 340 340 340 339 339 337 338 337 336
308 308 308 309 308 308 307 308 309 308 308 310 307 307 306 305 303 303 302 301 300 299 299 300 302 304 306 310 314 315 311 333 334 337 341 343 342 341 344 341 340 341 340 338 338 338 337 336 335
310 309 306 306 306 308 307 308 308 307 309 308 306 305 304 302 301 301 300 299 299 298 297 298 299 300 303 305 308 314 319 318 334 335 338 342 343 341 343 342 340 341 341 338 338 337 336 335 335
310 308 306 306 308 310 309 308 307 307 307 306 304 303 302 300 300 299 299 297 297 297 296 296 296 298 299 301 304 307 312 317 334 331 335 340 342 341 341 343 342 341 341 339 337 337 336 336 336
308 308 308 309 310 311 307 307 307 309 307 304 303 301 300 299 298 298 297 296 295 294 294 294 295 296 297 299 301 303 307 314 316 324 334 335 339 339 342 342 342 342 340 339 338 336 336 336 336
308 308 309 311 310 310 310 309 310 309 307 305 303 300 298 298 297 296 295 293 293 292 292 293 293 294 295 297 299 302 305 310 317 317 324 334 337 338 341 342 341 342 340 339 338 337 337 337 337
309 310 312 312 312 312 310 311 313 310 308 305 302 299 297 296 295 294 293 292 291 291 291 291 291 292 293 295 298 301 305 310 312 316 318 323 334 338 339 340 339 340 341 340 338 338 338 337 337
309 312 312 312 311 311 312 314 313 313 310 305 301 299 296 295 295 294 292 291 290 290 290 290 290 291 293 295 298 302 305 308 310 311 315 316 327 337 339 339 338 337 337 337 338 336 333 335 335
312 312 311 312 312 313 314 315 315 308 306 303 300 297 296 295 294 293 292 290 290 290 290 289 290 291 292 295 298 301 303 306 309 312 315 316 319 332 339 339 337 336 336 335 335 334 332 333 334
311 311 314 313 314 316 314 313 309 305 302 301 298 297 295 294 294 292 290 290 290 289 289 289 290 291 292 295 299 301 304 310 312 313 315 319 318 318 338 339 337 336 335 335 334 333 333 333 332
311 312 315 315 315 315 314 315 307 303 301 299 297 296 295 294 292 291 290 289 289 290 289 289 290 291 292 295 298 301 304 309 314 316 321 322 320 320 336 338 336 336 335 335 334 333 333 333 333
312 312 312 316 315 311 314 311 309 304 301 299 297 295 294 293 291 289 289 289 289 289 289 289 289 290 290 293 296 298 299 305 311 316 318 322 321 318 317 336 336 335 335 334 333 333 333 332 332
311 311 314 315 314 318 315 314 308 301 301 299 297 295 294 292 290 289 289 289 289 289 289 289 289 289 289 292 294 296 296 298 303 302 310 317 319 319 313 319 325 333 334 334 333 333 332 332 332
311 311 317 318 316 312 306 311 306 302 297 297 296 294 294 291 289 289 289 288 289 289 289 289 288 289 289 292 292 293 294 295 295 296 300 302 305 319 318 307 312 309 319 326 329 331 332 333 332
312 315 317 314 313 311 314 307 303 301 299 297 296 295 290 290 287 289 289 288 288 289 288 289 288 288 290 291 292 292 292 292 292 292 293 295 295 298 308 302 309 310 299 311 313 316 316 320 319

GFSSGP_925_thetae_132.txt.gz
Theta_e
314 316 316 316 315 311 314 316 313 315 316 315 314 316 320 324 333 337 333 345 347 346 341 340 339 338 339 338 337 337 337 339 341 340 335 334 332 331 332 334 334 332 335 337 335 336 337 337 335
316 317 316 311 315 317 316 315 314 313 315 315 316 315 323 330 331 334 336 349 348 349 343 341 340 339 339 338 337 337 338 339 341 341 337 334 333 331 331 333 332 338 340 339 337 337 337 336 336
317 317 312 313 313 317 318 318 317 315 315 316 316 320 322 323 325 332 339 348 350 349 344 342 342 340 339 338 338 338 340 341 341 341 338 335 334 332 332 333 334 341 340 339 338 337 337 337 336
316 312 310 314 318 317 320 314 313 317 316 317 318 323 322 320 320 316 322 342 347 350 349 347 343 341 341 338 338 338 340 341 342 342 339 336 335 334 333 335 336 338 339 338 338 338 338 337 336
315 307 312 315 317 318 314 313 314 315 317 316 321 323 321 318 313 313 314 316 341 343 349 347 345 343 342 339 337 338 339 341 342 341 340 338 336 335 334 336 336 338 338 338 338 338 338 337 336
308 306 310 312 313 313 313 312 312 314 312 313 315 322 320 312 311 311 311 312 333 338 338 345 348 348 345 340 337 337 337 338 341 341 341 339 338 336 335 336 337 338 337 338 338 338 338 337 336
309 307 310 312 311 312 310 312 311 312 310 311 311 318 315 309 310 310 310 310 310 320 342 337 340 347 347 345 338 337 336 337 337 339 341 341 339 338 336 337 338 338 337 338 337 337 337 337 336
303 303 308 308 309 310 309 312 310 309 310 310 309 310 312 309 309 309 310 310 310 310 310 317 345 345 346 344 342 337 337 336 337 338 339 341 341 339 338 338 339 338 338 338 337 337 337 337 336
304 303 305 308 308 307 308 308 309 308 308 309 308 309 309 309 309 309 309 309 309 310 310 311 327 346 347 345 341 338 337 337 337 338 339 341 342 341 339 339 339 338 338 338 337 337 337 337 336
303 301 304 306 307 308 307 307 307 307 306 307 308 309 310 310 308 307 307 307 307 308 309 309 310 310 316 342 343 339 337 337 337 337 339 341 342 341 340 339 339 339 339 338 338 337 336 336 335
304 303 303 305 307 307 306 306 307 306 306 306 307 307 307 308 306 307 308 308 308 308 310 310 311 311 312 313 329 344 341 338 337 337 338 339 342 342 341 340 340 340 339 339 338 337 336 335 334
306 305 306 306 306 306 306 306 306 306 307 306 306 306 306 306 306 306 306 305 305 306 306 308 308 310 311 311 313 315 339 341 340 337 337 339 341 342 341 340 340 340 339 338 338 337 335 335 333
305 306 306 306 306 306 306 307 306 306 306 306 305 305 307 306 305 304 303 303 302 302 303 303 304 306 308 311 312 315 316 330 340 340 337 337 340 341 341 341 340 340 340 338 337 336 335 334 333
305 305 305 305 305 306 307 305 306 307 306 305 306 306 305 303 303 302 301 301 300 300 300 300 302 302 303 307 310 312 315 327 332 338 340 338 338 341 343 342 341 340 340 338 336 336 335 334 332
306 306 305 306 306 306 306 306 305 306 305 307 306 305 303 302 301 301 300 299 299 298 298 298 299 300 300 302 306 309 313 315 332 330 337 341 338 339 341 344 342 341 340 339 337 336 335 333 332
307 307 307 307 306 306 306 305 305 305 306 306 304 303 302 301 300 300 299 298 297 297 297 296 297 297 298 299 301 304 310 314 318 325 326 337 341 338 340 342 342 341 341 339 338 336 336 334 335
305 306 307 307 306 308 306 306 307 306 306 304 302 301 300 299 299 299 297 296 296 295 295 295 295 295 296 297 298 301 305 310 323 327 332 332 338 340 339 341 341 341 340 339 338 337 336 336 335
307 307 306 305 304 306 307 306 305 305 304 302 300 300 299 298 298 297 296 295 294 293 292 292 292 294 294 295 296 298 301 306 310 316 326 333 334 338 339 340 341 341 340 339 338 338 337 337 336
307 307 306 304 306 308 308 307 304 303 302 301 300 299 298 297 297 296 295 293 292 291 291 291 291 292 292 293 294 297 298 300 305 310 317 325 333 334 337 339 340 341 340 339 339 337 337 337 336
308 307 306 306 308 309 308 307 306 305 303 301 299 298 297 296 295 295 294 292 291 290 290 290 290 291 291 291 292 294 297 299 302 306 311 319 325 332 334 337 340 340 339 339 338 337 336 335 335
309 307 307 307 309 309 309 308 309 306 304 302 299 297 296 295 295 294 293 291 290 290 289 289 290 290 290 291 292 294 296 300 303 306 309 313 320 327 333 336 338 340 339 338 338 337 336 335 335
310 308 308 311 310 310 309 308 310 308 305 302 299 296 295 294 293 293 291 290 289 289 289 289 289 290 290 291 292 293 295 298 301 306 308 310 311 317 329 333 336 337 338 338 338 336 335 335 334
308 311 311 311 310 310 310 310 311 310 308 302 299 296 294 293 293 291 291 290 289 289 289 289 289 290 290 291 292 293 296 299 301 304 306 307 309 311 314 326 330 336 338 339 338 336 335 335 334
310 311 310 311 310 312 312 312 311 306 303 301 298 296 294 293 292 291 290 289 289 289 289 289 289 290 290 291 293 295 297 298 300 302 305 307 310 313 316 316 319 334 336 338 338 337 336 335 335
310 309 312 313 313 316 313 312 307 303 300 299 297 296 294 292 291 290 289 289 289 289 289 289 289 289 290 290 291 294 297 300 303 304 307 310 311 314 318 317 319 322 333 337 338 336 336 335 335
310 311 313 316 313 314 313 314 306 301 299 298 296 295 294 291 291 289 288 288 288 289 289 289 289 289 289 290 291 293 297 299 302 305 309 310 314 318 318 317 316 320 322 336 336 336 335 334 333
311 312 311 313 313 312 312 309 305 302 300 298 296 295 294 292 291 289 288 288 288 289 288 289 288 289 289 290 290 292 294 296 300 305 310 313 317 319 316 315 316 318 320 334 334 334 333 333 332
310 310 311 311 312 319 315 314 307 303 300 298 296 295 292 291 289 288 288 288 288 288 288 288 288 288 288 289 289 291 291 294 296 298 305 307 313 315 316 314 317 322 329 333 334 333 332 331 332
310 310 314 315 315 317 312 311 306 302 294 295 296 295 289 288 288 288 288 287 288 288 288 288 288 288 288 288 289 290 290 291 292 294 295 299 302 306 306 308 309 308 307 327 332 332 333 332 332
310 312 314 315 317 312 309 307 301 299 297 297 296 292 287 287 287 287 287 288 288 288 288 288 287 287 288 288 289 289 290 290 291 292 292 292 293 293 294 303 309 306 302 303 311 310 321 322 317

GFSSGP_925_thetae_138.txt.gz
Theta_e
314 317 316 313 314 309 313 316 311 314 319 322 327 332 331 329 334 337 336 347 347 343 342 341 339 339 339 339 339 339 339 339 335 334 337 340 343 344 343 341 340 341 344 344 342 340 340 341 337
315 317 314 308 311 310 313 313 314 314 313 318 319 321 329 327 327 328 340 348 347 343 341 340 339 339 339 338 338 338 339 340 337 334 335 336 339 340 340 339 339 339 339 339 340 339 339 337 335
315 315 311 310 309 314 315 312 310 311 313 313 320 317 319 320 317 320 328 347 347 344 342 342 341 340 339 339 338 338 339 339 340 336 335 335 335 336 337 338 336 333 332 332 335 336 336 335 334
315 309 306 313 318 316 312 310 308 308 314 316 318 318 313 313 315 310 321 344 347 347 346 345 342 341 340 340 339 337 338 339 341 339 336 335 335 336 336 334 333 334 335 335 335 336 336 335 336
310 304 310 312 315 314 311 308 307 307 311 315 317 315 312 310 309 308 310 340 334 334 338 344 343 342 342 341 341 340 339 339 340 341 339 337 336 335 336 334 336 338 337 337 337 336 336 336 336
306 304 308 311 312 310 309 308 308 308 307 307 315 309 308 308 307 307 309 310 312 316 325 336 339 342 344 344 342 340 339 339 341 341 341 339 337 336 335 335 338 339 337 337 336 336 336 336 335
306 304 308 308 310 309 308 306 307 308 307 307 309 313 308 305 305 308 309 309 309 308 309 309 310 312 315 327 340 342 341 339 339 339 341 341 339 338 337 336 336 338 338 337 337 336 336 336 335
301 302 306 307 308 308 307 308 307 307 307 308 307 307 307 304 308 308 308 308 307 307 307 307 307 308 309 310 313 328 340 340 339 338 338 339 341 339 338 337 337 338 338 337 337 336 336 336 336
300 301 303 306 305 307 306 307 307 306 306 307 304 305 305 307 307 308 306 304 304 304 304 304 305 306 307 308 309 311 315 328 340 339 337 336 336 340 339 338 338 338 338 337 337 336 336 336 335
300 299 303 304 305 306 306 306 306 306 304 306 304 307 305 304 303 301 300 300 299 299 300 300 301 303 304 305 307 308 310 312 324 334 338 338 336 337 338 339 338 339 339 338 337 336 336 336 336
302 302 302 304 304 304 305 305 304 305 305 304 304 306 302 301 300 299 299 298 297 297 297 297 298 299 300 302 303 305 306 308 310 321 331 329 336 341 338 339 339 339 339 339 338 337 337 336 336
304 303 303 304 304 304 305 305 305 304 302 305 304 302 300 299 298 297 297 296 296 296 295 295 296 297 298 299 300 301 303 305 306 309 313 332 334 335 342 343 340 339 339 339 339 338 337 336 336
303 304 303 303 302 302 304 304 305 305 303 301 300 299 298 298 297 296 296 295 294 294 294 295 295 295 296 298 299 300 301 301 303 305 308 311 331 336 337 337 340 342 342 340 339 338 338 336 335
303 303 302 302 302 303 304 305 303 305 302 301 299 297 296 297 296 295 295 294 293 292 292 293 293 294 294 295 296 297 298 299 300 302 303 305 311 331 335 336 337 337 340 339 340 341 340 337 335
303 304 303 304 303 304 303 304 303 304 301 300 298 297 297 296 296 294 294 293 292 291 291 291 291 292 293 294 294 294 295 296 297 299 300 302 304 321 327 332 335 336 337 339 337 335 338 338 335
304 303 304 303 303 304 305 306 304 301 301 299 297 297 296 296 295 295 294 293 292 291 290 290 291 291 292 292 293 293 294 294 294 295 297 299 301 305 323 329 333 335 338 337 338 335 334 338 335
302 305 306 305 303 305 306 305 304 301 301 299 296 295 295 295 294 294 293 292 291 290 290 290 290 290 290 291 291 291 292 292 293 294 295 296 298 301 306 321 332 335 336 335 336 335 334 336 335
305 306 305 305 305 303 304 304 303 300 299 298 296 295 294 294 294 293 292 291 290 289 289 289 289 290 289 290 290 291 291 292 292 293 293 295 297 298 303 307 322 335 335 336 336 335 335 336 334
305 305 305 304 305 304 304 304 303 300 299 297 296 294 294 293 293 293 291 290 289 289 288 288 289 289 289 290 290 291 291 292 292 292 293 294 297 299 300 301 308 325 328 328 336 336 334 332 333
306 306 306 305 304 304 304 305 303 302 300 297 295 294 293 292 292 292 291 289 289 288 288 289 289 289 289 290 290 290 291 291 292 293 294 295 297 299 304 308 314 319 328 320 335 334 334 333 332
306 307 307 307 306 307 307 306 304 302 299 298 296 294 293 292 291 291 290 289 288 288 288 289 289 289 289 289 289 290 290 291 292 293 293 294 296 298 302 305 308 310 318 327 325 334 334 333 332
307 307 307 306 308 308 306 308 306 303 302 299 296 294 292 291 290 290 289 288 288 288 289 289 288 289 289 288 289 290 290 291 292 293 294 294 295 297 299 303 305 308 314 327 329 331 333 334 332
307 308 308 308 308 308 308 305 306 304 304 302 297 295 292 291 290 289 288 288 288 288 289 288 288 288 288 288 289 290 290 291 291 293 294 296 297 298 299 301 303 305 312 317 327 329 332 334 333
306 308 308 307 307 309 308 308 306 306 306 301 297 294 293 291 290 289 288 287 288 288 288 288 288 288 288 288 288 289 290 291 292 293 294 296 299 300 301 302 303 308 314 315 318 325 322 323 332
307 307 309 310 311 312 309 308 307 302 300 299 296 294 293 290 289 288 287 287 287 288 288 288 288 288 288 288 288 288 289 289 290 292 294 295 297 300 302 303 306 309 312 314 314 321 324 322 328
307 307 309 314 311 309 310 312 307 302 299 297 296 293 291 289 288 286 286 286 286 287 287 287 287 287 288 287 288 288 288 288 289 290 291 294 296 300 303 305 307 308 313 316 315 321 323 321 319
308 309 308 312 310 307 308 309 302 300 299 297 296 293 289 288 286 285 285 286 287 286 286 287 286 287 287 287 287 288 287 287 288 288 289 291 293 296 302 308 308 312 316 317 318 318 321 323 321
308 307 308 309 316 318 313 309 307 303 302 296 290 291 288 287 285 284 285 286 286 287 287 286 286 286 286 286 286 287 287 286 286 286 287 288 290 294 298 307 308 310 311 313 315 317 318 321 318
308 309 311 312 314 314 308 305 304 301 297 295 291 288 286 284 283 282 284 286 286 287 286 286 285 285 284 285 285 286 285 286 285 284 285 286 288 290 292 296 301 304 306 311 316 316 316 320 321
308 311 312 310 314 313 309 308 301 300 297 296 294 288 284 284 281 280 284 285 285 286 286 285 285 284 283 283 283 284 284 285 283 283 283 283 286 287 289 291 294 296 297 302 309 311 310 310 307

GFSSGP_925_thetae_141.txt.gz
Theta_e
314 317 316 314 321 317 319 318 314 317 333 332 331 333 334 334 337 343 339 342 345 343 341 340 340 339 339 340 340 340 339 336 335 338 342 342 340 340 340 339 339 339 340 342 341 340 339 340 339
314 316 314 315 320 319 320 315 314 315 319 320 323 327 326 322 324 329 324 342 346 345 344 343 341 341 341 340 339 338 339 339 335 336 340 342 342 343 342 340 339 340 343 342 341 339 339 340 338
315 314 319 318 317 320 318 312 312 314 316 317 321 317 317 318 315 313 324 341 346 345 342 343 342 341 342 342 342 342 341 339 339 335 336 341 343 343 342 340 338 339 340 340 338 338 337 338 335
313 314 314 317 317 316 313 312 309 313 318 320 317 312 312 308 311 311 319 334 336 336 342 341 341 341 341 342 342 342 342 342 341 338 336 336 338 338 339 340 339 339 334 334 334 335 335 335 334
309 312 318 319 318 315 312 310 310 313 315 316 316 310 310 307 308 309 311 315 318 322 330 333 338 338 341 342 341 340 342 342 342 341 339 337 336 337 337 337 336 333 333 333 333 334 335 335 335
313 311 317 320 315 312 311 310 310 310 311 311 310 310 308 305 309 307 307 307 306 307 308 310 311 313 318 320 336 341 340 340 341 341 340 339 337 336 336 335 333 336 337 336 336 336 335 335 336
311 312 313 313 313 310 309 309 309 309 309 311 314 311 309 307 307 306 305 305 305 305 306 306 307 307 308 309 312 320 337 340 339 340 340 340 339 337 336 336 335 338 338 337 336 336 336 336 336
307 310 310 310 312 310 308 309 308 308 308 308 308 310 309 307 306 305 304 304 304 304 303 303 304 305 306 306 308 309 311 325 339 339 339 338 338 338 337 337 336 337 338 338 337 336 336 336 336
303 309 309 309 308 308 307 308 308 307 308 307 308 308 306 304 304 304 303 302 302 302 301 302 303 303 304 305 306 307 308 309 315 333 337 338 337 337 337 337 337 336 337 337 337 336 336 336 336
306 307 307 305 306 307 307 307 307 308 307 307 309 306 303 302 302 301 300 300 299 299 299 298 300 301 302 302 304 305 305 306 307 309 321 331 335 337 335 336 336 337 336 337 337 336 336 337 339
304 308 304 305 305 305 306 306 306 307 307 305 309 305 302 301 300 300 299 298 297 297 296 296 297 298 299 300 301 302 303 304 305 305 306 310 329 334 336 336 336 338 336 337 337 337 338 339 339
307 304 305 306 305 306 307 306 306 305 306 305 304 301 301 300 299 298 298 297 296 296 295 295 295 295 297 297 297 299 300 302 303 303 304 304 307 326 334 337 336 338 340 339 341 340 339 339 338
305 305 305 306 304 304 305 307 307 306 303 301 300 300 300 299 298 297 296 296 295 295 294 294 294 294 294 295 295 296 297 298 301 302 302 302 303 305 319 333 336 336 338 341 341 339 339 339 336
304 304 305 304 305 304 306 304 307 305 302 301 301 300 299 298 297 297 296 295 294 294 293 293 293 293 293 294 294 295 295 296 296 298 300 300 302 302 309 321 333 335 335 338 339 340 338 338 336
304 307 306 305 305 305 305 306 307 304 302 301 300 300 299 297 296 296 295 294 293 293 292 292 292 292 292 292 293 293 294 294 295 296 297 299 300 303 304 306 319 329 335 335 337 338 338 338 336
306 305 308 307 306 304 306 308 306 304 303 301 300 299 298 297 296 295 294 293 293 292 292 291 291 292 292 292 292 293 293 293 294 295 295 296 297 299 302 305 309 323 329 335 336 337 336 336 335
306 308 309 309 306 307 308 308 306 303 303 301 300 298 298 297 296 295 293 293 292 291 291 291 291 292 292 292 292 293 293 293 294 294 295 295 296 298 299 302 306 311 322 330 334 336 336 334 334
307 308 308 308 309 308 308 307 305 302 303 301 299 298 297 297 296 294 293 292 291 291 291 291 291 291 291 292 292 292 293 293 293 294 294 295 295 297 298 300 303 305 308 319 333 334 334 334 334
307 307 308 308 308 307 309 306 306 303 302 301 299 298 297 297 295 294 293 292 291 291 291 291 291 291 291 291 291 291 291 291 292 293 293 294 295 295 297 300 302 304 306 310 324 333 332 334 334
307 308 309 308 308 307 307 307 305 304 302 300 299 298 297 297 296 294 293 291 290 290 291 291 291 291 290 290 289 290 290 290 291 292 293 294 294 295 296 298 300 305 311 314 319 329 331 331 333
308 308 309 309 308 308 309 310 307 304 301 299 298 297 296 295 295 294 292 291 290 291 291 290 290 290 290 289 289 289 289 290 291 292 292 293 295 295 296 296 298 303 307 311 315 323 323 319 327
307 307 308 308 309 311 308 312 309 306 304 301 299 297 296 294 294 292 291 290 290 290 290 290 290 289 289 289 288 289 289 290 290 290 291 292 294 296 297 298 298 300 302 309 314 320 324 322 322
308 307 308 309 309 310 311 312 310 306 307 304 300 297 296 294 293 292 290 289 289 289 289 289 289 289 288 288 288 288 289 289 289 290 291 292 293 295 298 299 299 300 303 305 310 315 325 322 327
307 308 309 310 310 313 311 311 311 311 310 305 300 297 295 293 292 291 290 289 289 289 288 289 289 289 288 288 288 289 289 288 289 289 290 292 292 294 296 299 301 301 303 306 310 318 323 326 323
308 310 312 313 315 313 310 311 311 308 304 304 299 297 294 292 291 291 290 289 288 288 288 288 288 288 288 288 288 288 288 287 287 288 289 290 291 293 295 296 301 303 305 308 314 317 319 327 327
308 309 311 315 314 313 311 313 315 304 301 299 297 294 292 291 290 290 287 288 287 287 287 287 287 288 287 287 287 287 287 287 286 286 287 288 289 290 293 296 299 303 306 310 312 316 318 323 325
308 310 310 312 311 314 312 312 306 302 301 299 298 295 292 290 289 288 287 287 287 286 286 286 286 286 286 286 286 286 285 286 285 285 286 286 287 289 292 295 299 307 308 310 311 317 319 322 322
308 308 311 313 315 315 314 315 319 306 305 301 297 295 291 290 289 288 286 286 286 285 285 285 285 284 284 285 285 285 284 284 284 284 285 285 286 287 290 292 295 298 301 306 309 313 320 323 324
308 309 312 312 313 316 315 315 307 308 305 303 297 294 291 289 287 287 286 285 285 285 285 284 283 283 282 283 283 284 283 283 283 282 283 284 285 286 288 289 291 293 296 301 308 312 316 320 321
311 311 312 313 314 313 312 315 306 305 303 301 297 292 290 288 286 285 285 285 284 284 284 284 283 282 281 281 281 282 281 281 281 281 281 282 284 285 285 287 288 289 291 293 295 297 301 306 305

GFSSGP_925_thetae_144.txt.gz
Theta_e
318 318 318 320 325 322 323 322 320 325 333 332 330 333 338 339 345 348 341 346 347 347 346 344 341 342 343 343 341 340 340 337 336 340 343 343 341 338 339 339 340 341 344 344 342 339 337 341 340
317 318 319 323 325 323 323 320 322 326 330 328 328 330 329 325 330 327 338 332 341 336 337 340 341 341 342 343 343 343 342 340 336 337 342 343 342 339 339 340 340 341 342 342 341 340 339 340 340
316 316 324 324 323 323 323 320 323 324 324 324 325 322 322 320 316 327 326 329 331 328 326 336 338 340 341 341 342 343 343 343 341 337 339 341 341 341 341 340 340 339 338 340 340 340 339 339 340
317 321 322 323 323 320 320 320 320 324 324 323 323 319 313 311 314 320 317 318 319 320 319 325 333 337 340 340 341 340 341 343 343 342 337 337 340 342 342 340 339 339 338 338 337 338 339 338 338
317 320 322 322 321 318 316 316 320 323 323 321 319 316 313 312 313 313 312 312 313 312 312 312 314 318 321 330 340 341 340 340 341 343 342 338 336 337 339 340 339 337 338 335 333 334 338 336 335
318 319 320 322 321 318 316 314 315 319 319 318 317 315 312 312 312 310 310 310 309 309 308 308 308 308 308 311 316 328 340 340 339 340 342 342 340 337 336 337 338 336 333 333 333 333 336 336 335
317 318 319 320 320 316 313 313 313 314 318 317 316 316 312 312 311 309 309 309 309 308 306 306 306 306 306 307 307 309 315 332 339 339 339 339 340 340 338 336 336 335 334 336 336 336 337 337 336
314 316 317 319 318 315 312 312 312 312 312 312 313 316 314 312 310 309 309 309 308 307 306 306 305 305 305 306 306 306 307 308 319 336 338 338 337 337 339 339 336 335 336 338 338 337 337 337 337
310 316 317 316 317 314 312 312 311 311 312 313 313 313 310 308 308 309 310 308 307 306 305 304 304 305 304 305 306 307 307 307 307 309 316 331 338 341 340 339 339 337 335 337 339 337 336 337 337
312 316 314 312 312 313 311 311 311 312 312 313 312 309 308 308 308 308 308 307 306 305 304 303 303 303 303 304 305 306 306 308 309 310 309 311 314 329 338 338 338 336 336 337 336 337 337 337 339
312 314 310 310 310 311 311 311 311 312 311 312 313 310 308 307 307 307 306 305 304 303 303 302 302 302 302 303 303 304 305 306 307 308 308 310 312 316 325 338 339 339 338 338 337 336 338 338 339
312 310 310 311 310 310 311 311 310 312 312 309 309 307 307 307 306 305 305 304 303 303 302 301 301 301 301 301 302 303 303 304 305 306 307 309 310 311 314 321 335 339 339 339 339 338 338 339 339
311 310 310 310 309 309 309 310 312 310 308 307 306 306 306 306 305 304 303 303 302 302 301 301 300 300 300 301 301 301 302 303 303 304 305 306 307 309 311 313 320 334 338 339 340 340 340 338 339
309 309 310 309 310 309 309 310 311 309 307 307 306 306 306 304 303 304 303 302 301 300 300 300 299 299 299 300 300 300 301 301 302 302 303 303 305 307 308 311 313 316 332 336 339 339 340 338 338
309 311 310 311 310 310 310 310 311 309 308 308 307 306 305 303 303 302 301 301 300 300 299 299 298 298 299 299 299 299 300 300 300 301 301 302 302 304 305 307 309 312 317 330 334 338 339 339 338
311 311 313 312 310 308 310 314 311 308 308 309 307 306 304 303 302 301 299 299 299 298 298 298 298 298 298 298 298 299 299 299 300 300 301 301 301 301 303 305 307 309 312 320 331 335 337 338 338
312 315 314 313 311 311 312 313 312 309 309 309 307 305 304 303 302 300 299 299 298 298 298 298 298 298 297 297 298 298 298 298 299 299 299 300 300 300 301 303 305 306 308 312 321 330 334 336 337
315 314 314 314 313 313 313 314 312 309 309 308 306 305 305 304 302 300 299 299 298 298 298 298 297 297 297 297 297 297 297 297 297 297 298 298 299 299 300 301 303 305 307 309 312 321 331 333 336
311 313 313 313 313 312 314 313 312 309 308 308 307 306 305 304 302 300 299 298 298 298 298 297 297 297 296 296 295 295 295 295 295 296 296 296 297 298 298 298 299 301 305 308 309 313 323 331 334
311 312 313 313 312 311 313 313 311 310 310 309 308 306 305 304 303 300 299 298 297 297 297 297 297 296 296 295 294 293 293 293 293 293 294 294 294 295 295 297 298 299 302 305 311 312 320 328 334
312 312 312 312 312 312 313 313 313 310 309 306 305 304 303 302 302 301 298 297 297 297 296 296 296 296 295 294 294 293 293 293 292 292 292 293 293 294 295 296 298 299 300 300 306 312 316 325 329
311 310 310 311 312 314 312 312 314 313 310 307 306 305 303 302 301 299 298 297 296 295 295 295 295 295 294 294 293 292 292 291 291 290 291 291 292 294 295 296 297 299 300 301 302 306 314 321 326
311 310 311 312 313 314 313 315 315 313 313 311 308 305 302 300 299 299 297 295 295 294 294 294 294 295 294 293 292 291 291 290 289 289 290 291 292 293 294 296 297 298 301 301 302 304 310 319 324
310 311 313 313 314 315 313 313 313 314 314 313 309 304 301 299 298 297 296 295 294 294 293 293 293 294 294 293 292 291 289 288 288 288 289 290 291 292 292 293 294 296 299 302 302 306 309 315 321
311 313 314 314 317 315 313 313 314 314 312 312 308 304 300 298 298 297 295 294 293 292 291 292 292 293 293 292 291 290 288 287 287 287 287 288 289 289 290 291 293 295 298 301 303 307 310 314 319
311 311 312 313 314 314 312 312 316 311 307 306 304 300 299 298 296 295 291 292 292 290 289 290 290 291 292 291 290 289 288 286 287 286 287 287 287 288 289 290 293 296 300 301 304 307 310 316 319
310 311 312 313 312 314 313 312 312 308 307 305 304 302 299 297 295 292 290 291 290 287 286 288 289 289 289 290 289 288 287 286 286 286 285 285 286 286 288 289 291 295 298 303 307 309 312 316 319
309 309 309 312 314 311 310 313 319 315 312 308 304 302 298 296 294 292 290 289 289 286 286 286 287 286 286 287 287 287 286 286 285 285 285 286 285 286 287 288 289 291 294 299 304 308 312 313 320
309 308 310 311 311 314 316 315 316 316 310 309 303 300 296 294 292 291 289 288 288 287 285 285 284 284 284 284 285 286 285 285 285 284 284 284 284 286 285 287 287 288 290 293 295 297 300 301 301
309 309 311 314 313 315 317 319 313 313 311 309 307 299 296 293 291 289 289 288 287 287 286 285 284 283 283 283 283 283 283 283 283 283 283 283 283 284 285 285 286 287 287 288 289 289 290 291 292